M I D A S
Marine Information and Data Acquisition System
Tripno 2148 of the Zeeleeuw from 2011-07-19 06:41:00 to 2011-07-19 14:12:29
Back to CruiseResearch ActivitiesStationsMapUnderway DataData graphs

EquipmentUnitsComment
TimeDGPSUTC
LatitudeDGPSDM.mWGS84
LongitudeDGPSDM.mWGS84
TemperatureSBE03/SBE38deg celciusITS90
ConductivitySBE21S/mITS90
SalinitySBE21 Practical Salinity Units
ChlorophylAChelsea fluorimeterg/lCalibrated in Aceton
Missing or incorrect values are displayed as -999
Sea surface data collected by the RV Zeeleeuw from 2011-07-19 06:43:17 to 2011-07-19 14:18:08
                                                                                    Next 1000 lines
Time Latitude Longitude Temperature Conductivity Salinity ChlorophylA
2011-07-19 06:43:28 51°13.635 2°56.019 20.3662 0.061731 0.347318 -3.020363
2011-07-19 06:43:33 51°13.635 2°56.019 20.3644 0.061731 0.347318 -3.020363
2011-07-19 06:43:37 51°13.635 2°56.019 20.3613 0.061731 0.347318 -3.020363
2011-07-19 06:43:43 51°13.635 2°56.019 20.3524 0.061731 0.347318 -3.020363
2011-07-19 06:43:48 51°13.635 2°56.019 20.349 0.061731 0.347324 -3.020363
2011-07-19 06:43:53 51°13.635 2°56.018 20.348 0.061731 0.347331 -3.020363
2011-07-19 06:43:57 51°13.636 2°56.017 20.3379 0.061731 0.347331 -3.020363
2011-07-19 06:44:02 51°13.636 2°56.014 20.3192 0.061731 0.347331 -3.020363
2011-07-19 06:44:08 51°13.637 2°56.01 20.3503 0.061731 0.347331 -3.020363
2011-07-19 06:44:13 51°13.638 2°56.006 20.3419 0.061731 0.347337 -3.020363
2011-07-19 06:44:18 51°13.64 2°56.001 20.3437 0.061731 0.347337 -3.020363
2011-07-19 06:44:24 51°13.642 2°55.994 20.3582 0.061731 0.347337 -3.020363
2011-07-19 06:44:30 51°13.644 2°55.987 20.3606 0.061731 0.347337 -3.020363
2011-07-19 06:44:35 51°13.646 2°55.98 20.3595 0.061731 0.347331 -3.020363
2011-07-19 06:44:41 51°13.648 2°55.971 20.365 0.061731 0.347331 -3.020363
2011-07-19 06:44:46 51°13.651 2°55.964 20.3629 0.061731 0.347331 -3.020363
2011-07-19 06:44:51 51°13.653 2°55.956 20.3423 0.061731 0.347331 -3.020363
2011-07-19 06:44:56 51°13.656 2°55.947 20.3493 0.061731 0.347324 -3.020363
2011-07-19 06:45:01 51°13.658 2°55.938 20.3524 0.061731 0.347324 -3.020363
2011-07-19 06:45:06 51°13.661 2°55.929 20.3607 0.061731 0.347324 -3.020363
2011-07-19 06:45:11 51°13.664 2°55.919 20.3594 0.061731 0.347324 -3.020363
2011-07-19 06:45:16 51°13.666 2°55.909 20.3726 0.061731 0.347324 -3.020363
2011-07-19 06:45:21 51°13.668 2°55.899 20.3735 0.061731 0.347324 -3.020363
2011-07-19 06:45:26 51°13.671 2°55.889 20.372 0.061731 0.347331 -3.020363
2011-07-19 06:45:32 51°13.674 2°55.877 20.3634 0.061731 0.347337 -3.020363
2011-07-19 06:45:37 51°13.676 2°55.866 20.3708 0.061731 0.34735 -3.020363
2011-07-19 06:45:42 51°13.678 2°55.856 20.373 0.061731 0.34735 -3.020363
2011-07-19 06:45:46 51°13.679 2°55.848 20.3754 0.061731 0.347356 -3.020363
2011-07-19 06:45:51 51°13.68 2°55.838 20.3777 0.061731 0.347363 -3.020363
2011-07-19 06:45:56 51°13.682 2°55.829 20.3784 0.061731 0.347375 -3.020363
2011-07-19 06:46:01 51°13.683 2°55.82 20.3766 0.061731 0.347382 -3.020363
2011-07-19 06:46:06 51°13.684 2°55.811 20.3755 0.061731 0.347382 -3.020363
2011-07-19 06:46:11 51°13.685 2°55.803 20.372 0.061731 0.347382 -3.020363
2011-07-19 06:46:16 51°13.686 2°55.794 20.3708 0.061731 0.347388 -3.020363
2011-07-19 06:46:21 51°13.687 2°55.787 20.378 0.061731 0.347388 -3.020363
2011-07-19 06:46:26 51°13.689 2°55.779 20.3739 0.061731 0.347395 -3.020363
2011-07-19 06:46:31 51°13.69 2°55.772 20.3766 0.061731 0.347395 -3.020363
2011-07-19 06:46:35 51°13.69 2°55.767 20.3715 0.061731 0.347395 -3.020363
2011-07-19 06:46:41 51°13.691 2°55.761 20.3754 0.061731 0.347395 -3.020363
2011-07-19 06:46:46 51°13.692 2°55.758 20.3824 0.061731 0.347395 -3.020363
2011-07-19 06:46:51 51°13.692 2°55.755 20.3737 0.061731 0.347395 -3.020363
2011-07-19 06:46:56 51°13.692 2°55.753 20.3734 0.061731 0.347401 -3.020363
2011-07-19 06:47:01 51°13.693 2°55.752 20.3698 0.061731 0.347401 -3.020363
2011-07-19 06:47:07 51°13.693 2°55.75 20.375 0.061731 0.347401 -3.020363
2011-07-19 06:47:12 51°13.694 2°55.75 20.3845 0.061731 0.347401 -3.020363
2011-07-19 06:47:16 51°13.695 2°55.75 20.3608 0.061731 0.347395 -3.020363
2011-07-19 06:47:21 51°13.696 2°55.752 20.3803 0.061731 0.347395 -3.020363
2011-07-19 06:47:27 51°13.697 2°55.753 20.354 0.061731 0.347414 -3.020363
2011-07-19 06:47:31 51°13.698 2°55.754 20.343 0.061731 0.347439 -3.020363
2011-07-19 06:47:36 51°13.699 2°55.755 20.2905 0.061731 0.347452 -3.020363
2011-07-19 06:47:41 51°13.699 2°55.755 20.3567 0.061731 0.347452 -3.020363
2011-07-19 06:47:46 51°13.699 2°55.755 20.3364 0.061731 0.347459 -3.020363
2011-07-19 06:47:52 51°13.699 2°55.754 20.3526 0.061731 0.347459 -3.020363
2011-07-19 06:47:57 51°13.698 2°55.753 20.3193 0.061731 0.347446 -3.020363
2011-07-19 06:48:01 51°13.698 2°55.752 20.3362 0.061731 0.347433 -3.020363
2011-07-19 06:48:06 51°13.696 2°55.751 20.3608 0.061731 0.347414 -3.020363
2011-07-19 06:48:11 51°13.695 2°55.749 20.3515 0.061731 0.347414 -3.020363
2011-07-19 06:48:16 51°13.693 2°55.747 20.347 0.061731 0.347401 -3.020363
2011-07-19 06:48:21 51°13.69 2°55.745 20.364 0.061731 0.347395 -3.020363
2011-07-19 06:48:26 51°13.688 2°55.743 20.3598 0.061731 0.347388 -3.020363
2011-07-19 06:48:31 51°13.686 2°55.741 20.359 0.061731 0.347388 -3.020363
2011-07-19 06:48:36 51°13.685 2°55.739 20.3663 0.061731 0.347388 -3.020363
2011-07-19 06:48:41 51°13.684 2°55.739 20.3887 0.061731 0.347388 -3.020363
2011-07-19 06:48:46 51°13.683 2°55.738 20.3954 0.061731 0.347395 -3.020363
2011-07-19 06:48:51 51°13.684 2°55.738 20.4055 0.061731 0.347407 -3.020363
2011-07-19 06:48:56 51°13.685 2°55.738 20.415 0.061731 0.34742 -3.020363
2011-07-19 06:49:01 51°13.686 2°55.738 20.4185 0.061731 0.347433 -3.020363
2011-07-19 06:49:06 51°13.689 2°55.737 20.4212 0.061731 0.347439 -3.020363
2011-07-19 06:49:11 51°13.692 2°55.736 20.4234 0.061731 0.347439 -3.020363
2011-07-19 06:49:16 51°13.695 2°55.734 20.4202 0.061731 0.347446 -3.020363
2011-07-19 06:49:21 51°13.698 2°55.732 20.4176 0.061731 0.347452 -3.020363
2011-07-19 06:49:26 51°13.703 2°55.729 20.4118 0.061731 0.347459 -3.020363
2011-07-19 06:49:31 51°13.707 2°55.726 20.4008 0.061731 0.347459 -3.020363
2011-07-19 06:49:36 51°13.712 2°55.722 20.3828 0.061731 0.347452 -3.020363
2011-07-19 06:49:41 51°13.718 2°55.718 20.3796 0.061731 0.347452 -3.020363
2011-07-19 06:49:46 51°13.724 2°55.713 20.3742 0.061731 0.347452 -3.020363
2011-07-19 06:49:51 51°13.73 2°55.708 20.3733 0.061731 0.347446 -3.020363
2011-07-19 06:49:56 51°13.737 2°55.703 20.3721 0.061731 0.347446 -3.020363
2011-07-19 06:50:01 51°13.744 2°55.697 20.3721 0.061731 0.347446 -3.020363
2011-07-19 06:50:05 51°13.75 2°55.693 20.3723 0.061731 0.347452 -3.020363
2011-07-19 06:50:11 51°13.759 2°55.685 20.3679 0.061731 0.347452 -3.020363
2011-07-19 06:50:16 51°13.767 2°55.679 20.3622 0.061731 0.347452 -3.020363
2011-07-19 06:50:21 51°13.776 2°55.673 20.351 0.061731 0.347459 -3.020363
2011-07-19 06:50:26 51°13.785 2°55.666 20.354 0.061731 0.347459 -3.020363
2011-07-19 06:50:31 51°13.794 2°55.66 20.357 0.061731 0.347465 -3.020363
2011-07-19 06:50:36 51°13.803 2°55.653 20.3607 0.061731 0.347471 -3.020363
2011-07-19 06:50:41 51°13.813 2°55.647 20.3546 0.061731 0.347471 -3.020363
2011-07-19 06:50:46 51°13.823 2°55.64 20.3545 0.061731 0.347471 -3.020363
2011-07-19 06:50:51 51°13.833 2°55.633 20.3501 0.061731 0.347478 -3.020363
2011-07-19 06:50:56 51°13.843 2°55.627 20.3549 0.061731 0.347478 -3.020363
2011-07-19 06:51:01 51°13.853 2°55.62 20.3569 0.061731 0.347478 -3.020363
2011-07-19 06:51:06 51°13.863 2°55.613 20.3551 0.061731 0.347471 -3.020363
2011-07-19 06:51:11 51°13.874 2°55.607 20.3607 0.061731 0.347471 -3.020363
2011-07-19 06:51:16 51°13.885 2°55.6 20.3647 0.061731 0.347478 -3.020363
2011-07-19 06:51:21 51°13.897 2°55.593 20.3629 0.061628 0.346887 -3.020363
2011-07-19 06:51:26 51°13.908 2°55.586 20.374 0.061731 0.347478 -3.020363
2011-07-19 06:51:31 51°13.919 2°55.578 20.3665 0.061731 0.347491 -3.020363
2011-07-19 06:51:36 51°13.93 2°55.569 20.3627 0.061731 0.347491 -3.020363
2011-07-19 06:51:41 51°13.941 2°55.561 20.3552 0.061731 0.347491 -3.020363
2011-07-19 06:51:46 51°13.953 2°55.553 20.3879 0.061628 0.3469 -3.020363
2011-07-19 06:51:51 51°13.963 2°55.544 20.3984 0.061628 0.346906 -3.020363
2011-07-19 06:51:56 51°13.974 2°55.535 20.3765 0.061731 0.34751 -3.020363
2011-07-19 06:52:01 51°13.985 2°55.526 20.3784 0.061628 0.346913 -3.020363
2011-07-19 06:52:06 51°13.996 2°55.518 20.3837 0.061731 0.347516 -3.020363
2011-07-19 06:52:11 51°14.007 2°55.509 20.3457 0.061731 0.347516 -3.020363
2011-07-19 06:52:16 51°14.019 2°55.5 20.3694 0.061628 0.346919 -3.020363
2011-07-19 06:52:21 51°14.031 2°55.491 20.3813 0.061731 0.34751 -3.020363
2011-07-19 06:52:25 51°14.04 2°55.484 20.3851 0.061628 0.346919 -3.020363
2011-07-19 06:52:31 51°14.054 2°55.473 20.3324 0.061731 0.347516 -3.020363
2011-07-19 06:52:36 51°14.066 2°55.464 20.3834 0.061628 0.346919 -3.020363
2011-07-19 06:52:40 51°14.076 2°55.457 20.3869 0.061628 0.346919 -3.020363
2011-07-19 06:52:45 51°14.088 2°55.448 20.3913 0.061628 0.346919 -3.020363
2011-07-19 06:52:50 51°14.099 2°55.438 20.3795 0.061628 0.346926 -3.020363
2011-07-19 06:52:55 51°14.111 2°55.429 20.3608 0.061731 0.347522 -3.020363
2011-07-19 06:53:00 51°14.123 2°55.419 20.3766 0.061731 0.347529 -3.020363
2011-07-19 06:53:05 51°14.135 2°55.409 20.3783 0.061731 0.347535 -3.020363
2011-07-19 06:53:09 51°14.145 2°55.402 20.3831 0.061731 0.347535 -3.020363
2011-07-19 06:53:14 51°14.157 2°55.392 20.382 0.061628 0.346938 -3.020363
2011-07-19 06:53:20 51°14.171 2°55.379 20.3791 0.061628 0.346938 -3.020363
2011-07-19 06:53:25 51°14.184 2°55.369 20.3779 0.061628 0.346945 -3.020363
2011-07-19 06:53:29 51°14.193 2°55.361 20.3825 0.061628 0.346945 -3.020363
2011-07-19 06:53:35 51°14.208 2°55.348 20.3895 0.061628 0.346951 -3.020363
2011-07-19 06:53:40 51°14.22 2°55.338 20.3847 0.061628 0.346951 -3.020363
2011-07-19 06:53:45 51°14.232 2°55.327 20.3722 0.061628 0.346951 -3.020363
2011-07-19 06:53:50 51°14.245 2°55.317 20.3945 0.061628 0.346957 -3.020363
2011-07-19 06:53:56 51°14.259 2°55.304 20.3472 0.061628 0.346951 -3.020363
2011-07-19 06:54:01 51°14.272 2°55.293 20.395 0.061628 0.346957 -3.020363
2011-07-19 06:54:06 51°14.284 2°55.282 20.3841 0.061628 0.346957 -3.020363
2011-07-19 06:54:10 51°14.294 2°55.273 20.3693 0.061628 0.346957 -3.020363
2011-07-19 06:54:16 51°14.309 2°55.259 20.3808 0.061628 0.346964 -3.020363
2011-07-19 06:54:21 51°14.322 2°55.247 20.3648 0.061628 0.346964 -3.020363
2011-07-19 06:54:26 51°14.334 2°55.235 20.395 0.061731 0.347561 -3.020363
2011-07-19 06:54:31 51°14.346 2°55.223 20.3446 0.061628 0.34697 -3.020363
2011-07-19 06:54:36 51°14.359 2°55.211 20.3899 0.061628 0.346964 -3.020363
2011-07-19 06:54:41 51°14.372 2°55.199 20.3573 0.061628 0.346964 -3.020363
2011-07-19 06:54:46 51°14.385 2°55.187 20.3752 0.061628 0.34697 -3.020363
2011-07-19 06:54:51 51°14.397 2°55.175 20.3576 0.061628 0.34697 -3.020363
2011-07-19 06:54:56 51°14.41 2°55.163 20.3719 0.061628 0.34697 -3.020363
2011-07-19 06:55:01 51°14.423 2°55.15 20.3862 0.061628 0.346977 -3.020363
2011-07-19 06:55:06 51°14.435 2°55.138 20.3408 0.061628 0.346977 -3.020363
2011-07-19 06:55:11 51°14.448 2°55.126 20.3367 0.061628 0.346977 -3.020363
2011-07-19 06:55:16 51°14.461 2°55.113 20.3775 0.061628 0.346983 -3.020363
2011-07-19 06:55:21 51°14.474 2°55.1 20.3532 0.061628 0.346983 -3.020363
2011-07-19 06:55:25 51°14.484 2°55.089 20.3043 0.061628 0.346983 -3.020363
2011-07-19 06:55:30 51°14.498 2°55.076 20.347 0.061628 0.346983 -3.020363
2011-07-19 06:55:35 51°14.511 2°55.062 20.3499 0.061628 0.346983 -3.020363
2011-07-19 06:55:40 51°14.525 2°55.049 20.3393 0.061628 0.346983 -3.020363
2011-07-19 06:55:45 51°14.538 2°55.034 20.3361 0.061628 0.346977 -3.020363
2011-07-19 06:55:49 51°14.549 2°55.021 20.3469 0.061628 0.346989 -3.020363
2011-07-19 06:55:54 51°14.562 2°55.003 20.2739 0.061628 0.346977 -3.020363
2011-07-19 06:55:59 51°14.575 2°54.985 20.3008 0.061628 0.346964 -3.020363
2011-07-19 06:56:04 51°14.589 2°54.967 20.2856 0.061628 0.346964 -3.020363
2011-07-19 06:56:09 51°14.602 2°54.949 20.282 0.061628 0.346964 -3.020363
2011-07-19 06:56:14 51°14.616 2°54.931 20.2878 0.061628 0.346964 -3.020363
2011-07-19 06:56:18 51°14.627 2°54.917 20.2916 0.061628 0.34697 -3.020363
2011-07-19 06:56:23 51°14.642 2°54.9 20.2775 0.061628 0.346977 -3.020363
2011-07-19 06:56:29 51°14.659 2°54.879 20.2962 0.061628 0.346728 -3.020363
2011-07-19 06:56:33 51°14.67 2°54.865 19.2982 0.091651 0.524682 -3.020363
2011-07-19 06:56:38 51°14.685 2°54.848 18.8285 0.091651 0.524682 -3.020363
2011-07-19 06:56:43 51°14.699 2°54.832 18.4506 0.129903 0.753936 -3.020363
2011-07-19 06:56:48 51°14.714 2°54.815 18.0807 0.114478 0.661378 -3.020363
2011-07-19 06:56:53 51°14.728 2°54.799 17.8554 0.165482 0.954029 -3.020363
2011-07-19 06:56:57 51°14.74 2°54.786 17.6875 0.245803 1.427091 -3.020363
2011-07-19 06:57:02 51°14.755 2°54.77 17.5709 0.240557 1.388874 -3.020363
2011-07-19 06:57:07 51°14.77 2°54.756 17.5103 0.240557 1.388874 -3.020363
2011-07-19 06:57:13 51°14.788 2°54.738 17.4761 0.544055 3.314801 -3.020363
2011-07-19 06:57:17 51°14.8 2°54.726 17.4152 0.978834 6.266623 -3.020363
2011-07-19 06:57:21 51°14.812 2°54.715 17.3668 1.102552 7.193016 -3.020363
2011-07-19 06:57:27 51°14.83 2°54.698 17.3182 2.105581 14.641609 -3.020363
2011-07-19 06:57:33 51°14.849 2°54.681 17.3029 3.511455 25.809784 -3.020363
2011-07-19 06:57:37 51°14.861 2°54.67 17.2943 3.511455 25.809784 -3.020363
2011-07-19 06:57:42 51°14.877 2°54.656 17.2976 4.042746 30.350932 -3.020363
2011-07-19 06:57:48 51°14.895 2°54.639 17.2548 4.178952 31.608157 -3.020363
2011-07-19 06:57:52 51°14.907 2°54.628 17.2513 4.23919 32.202763 -3.020363
2011-07-19 06:57:57 51°14.923 2°54.615 17.2454 4.282947 32.64277 -3.020363
2011-07-19 06:58:02 51°14.938 2°54.601 17.2373 4.302962 32.868864 -3.020363
2011-07-19 06:58:08 51°14.957 2°54.585 17.2296 4.302962 32.868864 -3.020363
2011-07-19 06:58:12 51°14.969 2°54.573 17.2012 4.313021 32.994428 -3.020363
2011-07-19 06:58:17 51°14.984 2°54.559 17.2052 4.322251 33.105384 -3.020363
2011-07-19 06:58:22 51°14.999 2°54.543 17.1981 4.331792 33.212688 -3.020363
2011-07-19 06:58:28 51°15.016 2°54.524 17.1726 4.338637 33.291785 -3.020363
2011-07-19 06:58:33 51°15.03 2°54.507 17.1669 4.343096 33.347876 -3.020363
2011-07-19 06:58:37 51°15.041 2°54.493 17.1826 4.343096 33.347876 -3.020363
2011-07-19 06:58:42 51°15.055 2°54.475 17.1682 4.348385 33.407852 -3.020363
2011-07-19 06:58:48 51°15.071 2°54.454 17.1627 4.35326 33.466983 -3.020363
2011-07-19 06:58:53 51°15.084 2°54.435 17.1468 4.356994 33.510384 -3.020363
2011-07-19 06:58:57 51°15.095 2°54.42 17.1397 4.359379 33.544217 -3.020363
2011-07-19 06:59:02 51°15.108 2°54.401 17.1312 4.361661 33.57452 -3.020363
2011-07-19 06:59:08 51°15.124 2°54.378 17.1368 4.361661 33.57452 -3.020363
2011-07-19 06:59:13 51°15.137 2°54.359 17.1374 4.362802 33.594352 -3.020363
2011-07-19 06:59:17 51°15.148 2°54.345 17.1285 4.363321 33.604829 -3.020363
2011-07-19 06:59:22 51°15.162 2°54.326 17.1175 4.364669 33.621789 -3.020363
2011-07-19 06:59:27 51°15.176 2°54.308 17.1214 4.366328 33.646789 -3.020363
2011-07-19 06:59:33 51°15.193 2°54.287 17.1064 4.367573 33.665551 -3.020363
2011-07-19 06:59:37 51°15.204 2°54.273 17.1046 4.367573 33.665551 -3.020363
2011-07-19 06:59:42 51°15.219 2°54.255 17.0952 4.36861 33.680523 -3.020363
2011-07-19 06:59:47 51°15.233 2°54.238 17.0928 4.369129 33.688346 -3.020363
2011-07-19 06:59:52 51°15.248 2°54.222 17.0854 4.369544 33.697289 -3.020363
2011-07-19 06:59:57 51°15.263 2°54.206 17.0746 4.369959 33.706907 -3.020363
2011-07-19 07:00:02 51°15.278 2°54.19 17.066 4.370374 33.715856 -3.020363
2011-07-19 07:00:08 51°15.296 2°54.171 17.0689 4.370374 33.715856 -3.020363
2011-07-19 07:00:12 51°15.308 2°54.159 17.0603 4.3711 33.730181 -3.020363
2011-07-19 07:00:17 51°15.323 2°54.142 17.0675 4.371515 33.739811 -3.020363
2011-07-19 07:00:22 51°15.337 2°54.126 17.0636 4.370789 33.739594 -3.020363
2011-07-19 07:00:28 51°15.354 2°54.105 17.0605 4.370063 33.740049 -3.020363
2011-07-19 07:00:32 51°15.366 2°54.092 17.0551 4.369856 33.744312 -3.020363
2011-07-19 07:00:37 51°15.38 2°54.074 17.0606 4.369856 33.744312 -3.020363
2011-07-19 07:00:42 51°15.394 2°54.055 17.0571 4.369337 33.747907 -3.020363
2011-07-19 07:00:48 51°15.41 2°54.033 17.0615 4.369649 33.755307 -3.020363
2011-07-19 07:00:53 51°15.423 2°54.013 17.0571 4.370063 33.762259 -3.020363
2011-07-19 07:00:57 51°15.434 2°53.998 17.0519 4.371204 33.774813 -3.020363
2011-07-19 07:01:02 51°15.448 2°53.979 17.0535 4.371204 33.777509 -3.020363
2011-07-19 07:01:08 51°15.464 2°53.957 17.0545 4.371204 33.777509 -3.020363
2011-07-19 07:01:13 51°15.478 2°53.939 17.0513 4.368404 33.756674 -3.020363
2011-07-19 07:01:17 51°15.49 2°53.925 17.048 4.367678 33.751746 -3.020363
2011-07-19 07:01:22 51°15.504 2°53.908 17.0543 4.364982 33.729113 -3.020363
2011-07-19 07:01:28 51°15.521 2°53.889 17.0613 4.361352 33.700433 -3.020363
2011-07-19 07:01:33 51°15.536 2°53.873 17.0441 4.357515 33.667944 -3.020363
2011-07-19 07:01:37 51°15.547 2°53.861 17.0443 4.357515 33.667944 -3.020363
2011-07-19 07:01:42 51°15.562 2°53.845 17.0385 4.354611 33.644196 -3.020363
2011-07-19 07:01:47 51°15.577 2°53.829 17.0358 4.354818 33.64666 -3.020363
2011-07-19 07:01:53 51°15.594 2°53.81 17.0336 4.358448 33.678699 -3.020363
2011-07-19 07:01:57 51°15.606 2°53.797 17.0352 4.362804 33.716346 -3.020363
2011-07-19 07:02:02 51°15.62 2°53.78 17.0341 4.367678 33.759157 -3.020363
2011-07-19 07:02:07 51°15.634 2°53.763 17.0242 4.367678 33.759157 -3.020363
2011-07-19 07:02:12 51°15.648 2°53.746 17.0342 4.373279 33.810955 -3.020363
2011-07-19 07:02:17 51°15.662 2°53.728 17.0282 4.378361 33.858289 -3.020363
2011-07-19 07:02:22 51°15.676 2°53.711 17.021 4.383858 33.908555 -3.020363
2011-07-19 07:02:28 51°15.692 2°53.69 17.0278 4.38728 33.940885 -3.020363
2011-07-19 07:02:32 51°15.703 2°53.676 17.0268 4.391533 33.979051 -3.020363
2011-07-19 07:02:37 51°15.717 2°53.658 17.0178 4.391533 33.979051 -3.020363
2011-07-19 07:02:42 51°15.731 2°53.641 17.0183 4.395267 34.013415 -3.020363
2011-07-19 07:02:48 51°15.748 2°53.62 17.0268 4.398482 34.042617 -3.020363
2011-07-19 07:02:53 51°15.762 2°53.602 17.0147 4.401282 34.069593 -3.020363
2011-07-19 07:02:57 51°15.774 2°53.588 17.0118 4.403357 34.089605 -3.020363
2011-07-19 07:03:02 51°15.788 2°53.571 17.0088 4.404394 34.099953 -3.020363
2011-07-19 07:03:08 51°15.804 2°53.549 17.0057 4.404394 34.099953 -3.020363
2011-07-19 07:03:13 51°15.818 2°53.531 17.0081 4.40595 34.114796 -3.020363
2011-07-19 07:03:17 51°15.829 2°53.517 17.0082 4.407713 34.132121 -3.020363
2011-07-19 07:03:22 51°15.843 2°53.499 17.0268 4.408128 34.136398 -3.020363
2011-07-19 07:03:28 51°15.861 2°53.48 17.0069 4.409165 34.148117 -3.020363
2011-07-19 07:03:33 51°15.876 2°53.465 17.0023 4.410099 34.158938 -3.020363
2011-07-19 07:03:37 51°15.888 2°53.454 17.0019 4.410099 34.158938 -3.020363
2011-07-19 07:03:42 51°15.904 2°53.44 17.0026 4.411343 34.17246 -3.020363
2011-07-19 07:03:48 51°15.923 2°53.425 17.0047 4.411862 34.179005 -3.020363
2011-07-19 07:03:53 51°15.939 2°53.412 17.0089 4.411343 34.17246 -3.020363
2011-07-19 07:03:57 51°15.952 2°53.403 16.9985 4.409891 34.15714 -3.020363
2011-07-19 07:04:02 51°15.968 2°53.391 16.997 4.411447 34.173359 -3.020363
2011-07-19 07:04:07 51°15.984 2°53.379 16.9952 4.411447 34.173359 -3.020363
2011-07-19 07:04:13 51°16.003 2°53.366 16.9984 4.413106 34.191164 -3.020363
2011-07-19 07:04:17 51°16.016 2°53.356 16.9983 4.413729 34.198611 -3.020363
2011-07-19 07:04:22 51°16.032 2°53.345 16.9958 4.413936 34.201778 -3.020363
2011-07-19 07:04:28 51°16.051 2°53.33 16.9976 4.413833 34.200879 -3.020363
2011-07-19 07:04:33 51°16.067 2°53.317 17.0003 4.41487 34.211926 -3.020363
2011-07-19 07:04:37 51°16.08 2°53.307 17.0007 4.41487 34.211926 -3.020363
2011-07-19 07:04:42 51°16.095 2°53.294 16.9949 4.415803 34.222075 -3.020363
2011-07-19 07:04:48 51°16.114 2°53.278 16.9956 4.416529 34.229742 -3.020363
2011-07-19 07:04:52 51°16.126 2°53.268 16.9888 4.416529 34.231111 -3.020363
2011-07-19 07:04:57 51°16.142 2°53.254 16.992 4.410929 34.18253 -3.020363
2011-07-19 07:05:02 51°16.157 2°53.24 16.9874 4.416944 34.23471 -3.020363
2011-07-19 07:05:08 51°16.175 2°53.223 16.9882 4.416944 34.23471 -3.020363
2011-07-19 07:05:13 51°16.191 2°53.21 16.9914 4.417152 34.236509 -3.020363
2011-07-19 07:05:17 51°16.203 2°53.2 16.9906 4.417774 34.242593 -3.020363
2011-07-19 07:05:22 51°16.219 2°53.187 16.9893 4.418604 34.251162 -3.020363
2011-07-19 07:05:28 51°16.238 2°53.172 16.9836 4.420367 34.268517 -3.020363
2011-07-19 07:05:33 51°16.254 2°53.16 16.9812 4.421197 34.277088 -3.020363
2011-07-19 07:05:37 51°16.267 2°53.15 16.975 4.421197 34.277088 -3.020363
2011-07-19 07:05:42 51°16.283 2°53.138 16.9679 4.422234 34.287461 -3.020363
2011-07-19 07:05:48 51°16.302 2°53.123 16.9637 4.423064 34.295348 -3.020363
2011-07-19 07:05:53 51°16.317 2°53.11 16.9635 4.423998 34.30345 -3.020363
2011-07-19 07:05:57 51°16.33 2°53.099 16.9578 4.424827 34.311339 -3.020363
2011-07-19 07:06:02 51°16.345 2°53.085 16.9518 4.425865 34.322402 -3.020363
2011-07-19 07:06:08 51°16.363 2°53.067 16.9519 4.425865 34.322402 -3.020363
2011-07-19 07:06:13 51°16.378 2°53.053 16.9516 4.426694 34.332353 -3.020363
2011-07-19 07:06:17 51°16.39 2°53.041 16.9472 4.428562 34.353374 -3.020363
2011-07-19 07:06:22 51°16.405 2°53.026 16.9434 4.429806 34.368997 -3.020363
2011-07-19 07:06:27 51°16.421 2°53.012 16.9357 4.430221 34.376042 -3.020363
2011-07-19 07:06:33 51°16.439 2°52.994 16.9282 4.430947 34.386479 -3.020363
2011-07-19 07:06:37 51°16.451 2°52.983 16.9211 4.430947 34.386479 -3.020363
2011-07-19 07:06:42 51°16.466 2°52.969 16.9225 4.431362 34.392838 -3.020363
2011-07-19 07:06:48 51°16.485 2°52.953 16.9133 4.431259 34.394003 -3.020363
2011-07-19 07:06:52 51°16.497 2°52.943 16.9027 4.431466 34.39925 -3.020363
2011-07-19 07:06:57 51°16.513 2°52.931 16.8931 4.431674 34.404498 -3.020363
2011-07-19 07:07:02 51°16.529 2°52.919 16.8839 4.431881 34.411126 -3.020363
2011-07-19 07:07:08 51°16.549 2°52.905 16.8764 4.431881 34.411126 -3.020363
2011-07-19 07:07:12 51°16.562 2°52.897 16.8744 4.431778 34.415741 -3.020363
2011-07-19 07:07:17 51°16.578 2°52.887 16.8687 4.431052 34.414946 -3.020363
2011-07-19 07:07:22 51°16.595 2°52.877 16.8596 4.430429 34.415744 -3.020363
2011-07-19 07:07:28 51°16.614 2°52.865 16.852 4.430429 34.421954 -3.020363
2011-07-19 07:07:33 51°16.63 2°52.855 16.8535 4.430118 34.426841 -3.020363
2011-07-19 07:07:37 51°16.643 2°52.847 16.8487 4.430118 34.426841 -3.020363
2011-07-19 07:07:42 51°16.66 2°52.836 16.8401 4.429807 34.43104 -3.020363
2011-07-19 07:07:48 51°16.679 2°52.823 16.8387 4.429289 34.434126 -3.020363
2011-07-19 07:07:53 51°16.695 2°52.812 16.8383 4.428874 34.436735 -3.020363
2011-07-19 07:07:57 51°16.708 2°52.803 16.8337 4.428563 34.440939 -3.020363
2011-07-19 07:08:02 51°16.724 2°52.791 16.8248 4.428148 34.444242 -3.020363
2011-07-19 07:08:08 51°16.743 2°52.777 16.8237 4.428148 34.444242 -3.020363
2011-07-19 07:08:13 51°16.758 2°52.764 16.8241 4.42763 34.44526 -3.020363
2011-07-19 07:08:17 51°16.771 2°52.754 16.8135 4.4268 34.442184 -3.020363
2011-07-19 07:08:22 51°16.787 2°52.742 16.8136 4.424103 34.423537 -3.020363
2011-07-19 07:08:27 51°16.802 2°52.729 16.8127 4.426385 34.446873 -3.020363
2011-07-19 07:08:33 51°16.821 2°52.714 16.8027 4.42597 34.448104 -3.020363
2011-07-19 07:08:37 51°16.833 2°52.704 16.8043 4.42597 34.448104 -3.020363
2011-07-19 07:08:42 51°16.849 2°52.691 16.7957 4.425659 34.449547 -3.020363
2011-07-19 07:08:47 51°16.865 2°52.679 16.7945 4.422029 34.421375 -3.020363
2011-07-19 07:08:53 51°16.883 2°52.664 16.7889 4.424933 34.450837 -3.020363
2011-07-19 07:08:57 51°16.896 2°52.654 16.7891 4.424519 34.45207 -3.020363
2011-07-19 07:09:02 51°16.911 2°52.641 16.7885 4.424104 34.450531 -3.020363
2011-07-19 07:09:08 51°16.93 2°52.626 16.7861 4.424104 34.450531 -3.020363
2011-07-19 07:09:12 51°16.942 2°52.616 16.7864 4.423896 34.45288 -3.020363
2011-07-19 07:09:17 51°16.958 2°52.604 16.784 4.423482 34.452727 -3.020363
2011-07-19 07:09:22 51°16.974 2°52.591 16.7802 4.42317 34.454173 -3.020363
2011-07-19 07:09:28 51°16.993 2°52.576 16.7812 4.422859 34.456311 -3.020363
2011-07-19 07:09:33 51°17.009 2°52.564 16.7819 4.422444 34.454773 -3.020363
2011-07-19 07:09:37 51°17.021 2°52.555 16.7799 4.422444 34.454773 -3.020363
2011-07-19 07:09:42 51°17.037 2°52.544 16.7772 4.422133 34.453446 -3.020363
2011-07-19 07:09:48 51°17.057 2°52.532 16.7805 4.421926 34.45441 -3.020363
2011-07-19 07:09:53 51°17.073 2°52.521 16.7721 4.421719 34.454681 -3.020363
2011-07-19 07:09:57 51°17.087 2°52.514 16.772 4.421615 34.455163 -3.020363
2011-07-19 07:10:02 51°17.103 2°52.505 16.7715 4.421407 34.45474 -3.020363
2011-07-19 07:10:08 51°17.123 2°52.493 16.7719 4.421407 34.45474 -3.020363
2011-07-19 07:10:13 51°17.139 2°52.483 16.7693 4.421304 34.453835 -3.020363
2011-07-19 07:10:17 51°17.152 2°52.475 16.7714 4.4212 34.455011 -3.020363
2011-07-19 07:10:22 51°17.169 2°52.466 16.7686 4.420889 34.45299 -3.020363
2011-07-19 07:10:28 51°17.189 2°52.454 16.7696 4.420785 34.454166 -3.020363
2011-07-19 07:10:33 51°17.205 2°52.444 16.7643 4.420578 34.454437 -3.020363
2011-07-19 07:10:37 51°17.218 2°52.436 16.7616 4.420578 34.454437 -3.020363
2011-07-19 07:10:42 51°17.235 2°52.426 16.7645 4.420474 34.454919 -3.020363
2011-07-19 07:10:47 51°17.252 2°52.416 16.7641 4.420267 34.454497 -3.020363
2011-07-19 07:10:53 51°17.271 2°52.404 16.7615 4.420163 34.454286 -3.020363
2011-07-19 07:10:57 51°17.284 2°52.395 16.7615 4.420059 34.454768 -3.020363
2011-07-19 07:11:02 51°17.3 2°52.383 16.761 4.419956 34.454557 -3.020363
2011-07-19 07:11:08 51°17.319 2°52.369 16.7665 4.419956 34.454557 -3.020363
2011-07-19 07:11:13 51°17.335 2°52.356 16.7621 4.419852 34.455039 -3.020363
2011-07-19 07:11:17 51°17.347 2°52.346 16.7605 4.419644 34.454617 -3.020363
2011-07-19 07:11:22 51°17.363 2°52.333 16.7605 4.419541 34.454405 -3.020363
2011-07-19 07:11:28 51°17.382 2°52.317 16.7676 4.419437 34.454194 -3.020363
2011-07-19 07:11:32 51°17.394 2°52.307 16.7691 4.419126 34.452866 -3.020363
2011-07-19 07:11:37 51°17.409 2°52.294 16.7716 4.419126 34.452866 -3.020363
2011-07-19 07:11:42 51°17.425 2°52.281 16.7766 4.419022 34.452655 -3.020363
2011-07-19 07:11:48 51°17.444 2°52.266 16.7824 4.419022 34.451961 -3.020363
2011-07-19 07:11:53 51°17.459 2°52.253 16.7896 4.419022 34.452655 -3.020363
2011-07-19 07:11:57 51°17.472 2°52.244 16.7972 4.41923 34.454466 -3.020363
2011-07-19 07:12:02 51°17.488 2°52.231 16.8039 4.418918 34.450362 -3.020363
2011-07-19 07:12:08 51°17.508 2°52.218 16.8106 4.418918 34.450362 -3.020363
2011-07-19 07:12:13 51°17.524 2°52.206 16.8161 4.418711 34.446471 -3.020363
2011-07-19 07:12:17 51°17.538 2°52.198 16.8229 4.419229 34.448221 -3.020363
2011-07-19 07:12:22 51°17.554 2°52.188 16.8296 4.419333 34.444965 -3.020363
2011-07-19 07:12:28 51°17.574 2°52.176 16.835 4.419852 34.443942 -3.020363
2011-07-19 07:12:33 51°17.59 2°52.166 16.8394 4.419126 34.432757 -3.020363
2011-07-19 07:12:37 51°17.604 2°52.158 16.8476 4.419126 34.432757 -3.020363
2011-07-19 07:12:42 51°17.62 2°52.147 16.8524 4.419748 34.430562 -3.020363
2011-07-19 07:12:48 51°17.64 2°52.135 16.8559 4.420474 34.431351 -3.020363
2011-07-19 07:12:53 51°17.656 2°52.124 16.8598 4.420992 34.42964 -3.020363
2011-07-19 07:12:57 51°17.669 2°52.115 16.8623 4.421614 34.42814 -3.020363
2011-07-19 07:13:02 51°17.685 2°52.104 16.865 4.422237 34.428719 -3.020363
2011-07-19 07:13:07 51°17.701 2°52.092 16.8674 4.422237 34.428719 -3.020363
2011-07-19 07:13:13 51°17.72 2°52.077 16.8667 4.423274 34.430836 -3.020363
2011-07-19 07:13:17 51°17.732 2°52.066 16.8676 4.423481 34.4278 -3.020363
2011-07-19 07:13:22 51°17.748 2°52.053 16.8671 4.424415 34.431089 -3.020363
2011-07-19 07:13:28 51°17.767 2°52.038 16.8667 4.424518 34.427151 -3.020363
2011-07-19 07:13:32 51°17.779 2°52.027 16.8645 4.425452 34.431823 -3.020363
2011-07-19 07:13:37 51°17.795 2°52.014 16.8606 4.425452 34.431823 -3.020363
2011-07-19 07:13:42 51°17.811 2°52.001 16.8597 4.425555 34.429268 -3.020363
2011-07-19 07:13:48 51°17.83 2°51.987 16.8543 4.427007 34.43984 -3.020363
2011-07-19 07:13:52 51°17.842 2°51.977 16.8501 4.428045 34.447489 -3.020363
2011-07-19 07:13:57 51°17.859 2°51.966 16.8411 4.428356 34.449507 -3.020363
2011-07-19 07:14:02 51°17.875 2°51.956 16.8343 4.428459 34.449719 -3.020363
2011-07-19 07:14:08 51°17.894 2°51.943 16.8329 4.428459 34.449719 -3.020363
2011-07-19 07:14:13 51°17.911 2°51.932 16.8289 4.428563 34.451314 -3.020363
2011-07-19 07:14:17 51°17.924 2°51.924 16.8216 4.428667 34.454293 -3.020363
2011-07-19 07:14:22 51°17.94 2°51.914 16.8189 4.428667 34.456369 -3.020363
2011-07-19 07:14:28 51°17.96 2°51.901 16.817 4.428563 34.458926 -3.020363
2011-07-19 07:14:33 51°17.976 2°51.89 16.8104 4.428356 34.462658 -3.020363
2011-07-19 07:14:37 51°17.988 2°51.88 16.8094 4.428356 34.462658 -3.020363
2011-07-19 07:14:42 51°18.004 2°51.868 16.8089 4.428149 34.465005 -3.020363
2011-07-19 07:14:48 51°18.023 2°51.853 16.804 4.42763 34.465335 -3.020363
2011-07-19 07:14:53 51°18.039 2°51.84 16.8006 4.427319 34.467472 -3.020363
2011-07-19 07:14:57 51°18.052 2°51.829 16.7999 4.427008 34.469611 -3.020363
2011-07-19 07:15:02 51°18.067 2°51.817 16.7982 4.426697 34.471057 -3.020363
2011-07-19 07:15:08 51°18.086 2°51.801 16.7967 4.426697 34.471057 -3.020363
2011-07-19 07:15:13 51°18.102 2°51.788 16.7943 4.426386 34.47181 -3.020363
2011-07-19 07:15:17 51°18.115 2°51.777 16.7952 4.426075 34.472563 -3.020363
2011-07-19 07:15:22 51°18.13 2°51.764 16.7928 4.425971 34.473739 -3.020363
2011-07-19 07:15:27 51°18.146 2°51.751 16.7924 4.425867 34.476302 -3.020363
2011-07-19 07:15:33 51°18.165 2°51.735 16.792 4.425556 34.475669 -3.020363
2011-07-19 07:15:37 51°18.178 2°51.726 16.7899 4.425556 34.475669 -3.020363
2011-07-19 07:15:42 51°18.194 2°51.713 16.7893 4.424726 34.470513 -3.020363
2011-07-19 07:15:48 51°18.213 2°51.699 16.7907 4.425349 34.477328 -3.020363
2011-07-19 07:15:52 51°18.226 2°51.69 16.7938 4.425245 34.477811 -3.020363
2011-07-19 07:15:57 51°18.243 2°51.679 16.7895 4.425141 34.478294 -3.020363
2011-07-19 07:16:02 51°18.259 2°51.669 16.79 4.425038 34.478777 -3.020363
2011-07-19 07:16:08 51°18.279 2°51.656 16.7912 4.425038 34.478777 -3.020363
2011-07-19 07:16:13 51°18.296 2°51.646 16.7925 4.425038 34.47947 -3.020363
2011-07-19 07:16:17 51°18.309 2°51.637 16.7917 4.424934 34.47926 -3.020363
2011-07-19 07:16:21 51°18.322 2°51.629 16.7916 4.425038 34.480164 -3.020363
2011-07-19 07:16:27 51°18.342 2°51.616 16.7934 4.425038 34.480164 -3.020363
2011-07-19 07:16:33 51°18.361 2°51.603 16.7924 4.425038 34.480858 -3.020363
2011-07-19 07:16:37 51°18.375 2°51.594 16.7939 4.425038 34.480858 -3.020363
2011-07-19 07:16:43 51°18.394 2°51.58 16.7916 4.425038 34.480858 -3.020363
2011-07-19 07:16:47 51°18.407 2°51.571 16.7953 4.425038 34.480858 -3.020363
2011-07-19 07:16:53 51°18.427 2°51.557 16.791 4.425038 34.480858 -3.020363
2011-07-19 07:16:57 51°18.439 2°51.547 16.7922 4.425038 34.480164 -3.020363
2011-07-19 07:17:01 51°18.452 2°51.536 16.7942 4.425038 34.480858 -3.020363
2011-07-19 07:17:07 51°18.471 2°51.52 16.7943 4.425038 34.480858 -3.020363
2011-07-19 07:17:13 51°18.49 2°51.505 16.7946 4.425038 34.480858 -3.020363
2011-07-19 07:17:17 51°18.503 2°51.494 16.7953 4.425141 34.481763 -3.020363
2011-07-19 07:17:21 51°18.515 2°51.483 16.7947 4.425141 34.481069 -3.020363
2011-07-19 07:17:27 51°18.534 2°51.467 16.7938 4.425141 34.481763 -3.020363
2011-07-19 07:17:33 51°18.554 2°51.452 16.7936 4.425141 34.481763 -3.020363
2011-07-19 07:17:37 51°18.566 2°51.442 16.7946 4.425141 34.481763 -3.020363
2011-07-19 07:17:41 51°18.579 2°51.432 16.7926 4.425141 34.481069 -3.020363
2011-07-19 07:17:47 51°18.598 2°51.417 16.7925 4.425245 34.481974 -3.020363
2011-07-19 07:17:52 51°18.615 2°51.405 16.7927 4.425245 34.48128 -3.020363
2011-07-19 07:17:57 51°18.631 2°51.392 16.7904 4.425141 34.480375 -3.020363
2011-07-19 07:18:01 51°18.643 2°51.382 16.7916 4.425245 34.48128 -3.020363
2011-07-19 07:18:07 51°18.662 2°51.366 16.7945 4.425245 34.48128 -3.020363
2011-07-19 07:18:12 51°18.678 2°51.353 16.7945 4.425245 34.48128 -3.020363
2011-07-19 07:18:17 51°18.694 2°51.341 16.7932 4.425245 34.48128 -3.020363
2011-07-19 07:18:22 51°18.71 2°51.328 16.7957 4.425245 34.48128 -3.020363
2011-07-19 07:18:28 51°18.729 2°51.313 16.7962 4.425245 34.481974 -3.020363
2011-07-19 07:18:33 51°18.745 2°51.301 16.798 4.425141 34.481763 -3.020363
2011-07-19 07:18:37 51°18.759 2°51.292 16.7943 4.425141 34.481763 -3.020363
2011-07-19 07:18:42 51°18.775 2°51.282 16.792 4.425141 34.481763 -3.020363
2011-07-19 07:18:48 51°18.795 2°51.269 16.7953 4.425141 34.481069 -3.020363
2011-07-19 07:18:53 51°18.812 2°51.258 16.7935 4.425245 34.481974 -3.020363
2011-07-19 07:18:57 51°18.825 2°51.25 16.7954 4.425245 34.48128 -3.020363
2011-07-19 07:19:02 51°18.841 2°51.239 16.7953 4.425245 34.479892 -3.020363
2011-07-19 07:19:08 51°18.861 2°51.226 16.7942 4.425245 34.479892 -3.020363
2011-07-19 07:19:13 51°18.877 2°51.215 16.7944 4.425349 34.480797 -3.020363
2011-07-19 07:19:17 51°18.89 2°51.205 16.7939 4.425452 34.481702 -3.020363
2011-07-19 07:19:22 51°18.907 2°51.194 16.7948 4.425452 34.482396 -3.020363
2011-07-19 07:19:28 51°18.926 2°51.18 16.7942 4.425452 34.483089 -3.020363
2011-07-19 07:19:33 51°18.942 2°51.168 16.7956 4.425452 34.482396 -3.020363
2011-07-19 07:19:37 51°18.955 2°51.158 16.7934 4.425452 34.482396 -3.020363
2011-07-19 07:19:42 51°18.972 2°51.146 16.7941 4.425452 34.482396 -3.020363
2011-07-19 07:19:47 51°18.988 2°51.134 16.7953 4.425452 34.483089 -3.020363
2011-07-19 07:19:53 51°19.007 2°51.12 16.7951 4.425452 34.483089 -3.020363
2011-07-19 07:19:57 51°19.02 2°51.111 16.7946 4.425452 34.483089 -3.020363
2011-07-19 07:20:02 51°19.036 2°51.099 16.7957 4.425556 34.483994 -3.020363
2011-07-19 07:20:08 51°19.056 2°51.085 16.7945 4.425556 34.483994 -3.020363
2011-07-19 07:20:12 51°19.069 2°51.075 16.7969 4.425556 34.483994 -3.020363
2011-07-19 07:20:17 51°19.085 2°51.063 16.7963 4.42566 34.484899 -3.020363
2011-07-19 07:20:21 51°19.098 2°51.054 16.796 4.42566 34.484899 -3.020363
2011-07-19 07:20:27 51°19.117 2°51.04 16.798 4.42566 34.484205 -3.020363
2011-07-19 07:20:32 51°19.134 2°51.029 16.796 4.425764 34.485804 -3.020363
2011-07-19 07:20:37 51°19.15 2°51.017 16.7969 4.425764 34.485804 -3.020363
2011-07-19 07:20:41 51°19.164 2°51.009 16.7977 4.425764 34.48511 -3.020363
2011-07-19 07:20:47 51°19.183 2°50.995 16.7978 4.425764 34.48511 -3.020363
2011-07-19 07:20:53 51°19.203 2°50.982 16.7996 4.425867 34.486015 -3.020363
2011-07-19 07:20:57 51°19.216 2°50.973 16.7989 4.425971 34.486225 -3.020363
2011-07-19 07:21:03 51°19.235 2°50.959 16.8011 4.426075 34.486436 -3.020363
2011-07-19 07:21:07 51°19.248 2°50.949 16.8016 4.426075 34.486436 -3.020363
2011-07-19 07:21:13 51°19.268 2°50.934 16.8052 4.426075 34.486436 -3.020363
2011-07-19 07:21:17 51°19.28 2°50.924 16.8066 4.426179 34.487341 -3.020363
2011-07-19 07:21:23 51°19.3 2°50.909 16.8065 4.426282 34.487552 -3.020363
2011-07-19 07:21:27 51°19.312 2°50.898 16.8086 4.426386 34.488456 -3.020363
2011-07-19 07:21:33 51°19.331 2°50.882 16.8128 4.42649 34.488667 -3.020363
2011-07-19 07:21:37 51°19.344 2°50.872 16.8126 4.42649 34.488667 -3.020363
2011-07-19 07:21:41 51°19.357 2°50.861 16.8148 4.426593 34.488878 -3.020363
2011-07-19 07:21:47 51°19.376 2°50.846 16.8151 4.426697 34.488395 -3.020363
2011-07-19 07:21:53 51°19.395 2°50.83 16.8184 4.426904 34.488122 -3.020363
2011-07-19 07:21:57 51°19.408 2°50.82 16.8206 4.427112 34.488544 -3.020363
2011-07-19 07:22:01 51°19.421 2°50.811 16.8237 4.427319 34.489659 -3.020363
2011-07-19 07:22:07 51°19.441 2°50.797 16.8257 4.427319 34.489659 -3.020363
2011-07-19 07:22:13 51°19.46 2°50.783 16.8289 4.427527 34.489387 -3.020363
2011-07-19 07:22:17 51°19.473 2°50.774 16.8302 4.427734 34.489115 -3.020363
2011-07-19 07:22:21 51°19.487 2°50.765 16.8324 4.427942 34.489536 -3.020363
2011-07-19 07:22:27 51°19.507 2°50.752 16.8345 4.428149 34.48857 -3.020363
2011-07-19 07:22:32 51°19.523 2°50.741 16.8371 4.428356 34.488992 -3.020363
2011-07-19 07:22:37 51°19.539 2°50.73 16.8404 4.428356 34.488992 -3.020363
2011-07-19 07:22:41 51°19.553 2°50.721 16.8425 4.428564 34.488026 -3.020363
2011-07-19 07:22:47 51°19.572 2°50.707 16.8451 4.428771 34.487754 -3.020363
2011-07-19 07:22:53 51°19.592 2°50.693 16.8468 4.429082 34.488387 -3.020363
2011-07-19 07:22:57 51°19.605 2°50.683 16.848 4.429394 34.489019 -3.020363
2011-07-19 07:23:01 51°19.617 2°50.673 16.85 4.429601 34.488054 -3.020363
2011-07-19 07:23:07 51°19.637 2°50.658 16.8519 4.429601 34.488054 -3.020363
2011-07-19 07:23:13 51°19.656 2°50.642 16.8546 4.429912 34.488686 -3.020363
2011-07-19 07:23:17 51°19.669 2°50.631 16.8554 4.430223 34.489319 -3.020363
2011-07-19 07:23:23 51°19.688 2°50.615 16.8589 4.430431 34.488354 -3.020363
2011-07-19 07:23:27 51°19.701 2°50.604 16.8593 4.430638 34.488082 -3.020363
2011-07-19 07:23:33 51°19.72 2°50.588 16.8628 4.430845 34.488504 -3.020363
2011-07-19 07:23:37 51°19.733 2°50.577 16.8636 4.430845 34.488504 -3.020363
2011-07-19 07:23:41 51°19.746 2°50.567 16.8668 4.431157 34.488443 -3.020363
2011-07-19 07:23:47 51°19.765 2°50.55 16.8682 4.431364 34.488865 -3.020363
2011-07-19 07:23:53 51°19.784 2°50.534 16.8695 4.431571 34.488594 -3.020363
2011-07-19 07:23:57 51°19.797 2°50.523 16.8729 4.431779 34.488322 -3.020363
2011-07-19 07:24:01 51°19.81 2°50.512 16.8759 4.431986 34.487358 -3.020363
2011-07-19 07:24:07 51°19.829 2°50.496 16.8784 4.431986 34.487358 -3.020363
2011-07-19 07:24:13 51°19.849 2°50.481 16.8797 4.432194 34.487087 -3.020363
2011-07-19 07:24:17 51°19.862 2°50.471 16.8826 4.432401 34.487509 -3.020363
2011-07-19 07:24:21 51°19.875 2°50.461 16.8868 4.432712 34.488141 -3.020363
2011-07-19 07:24:27 51°19.895 2°50.446 16.887 4.432816 34.48766 -3.020363
2011-07-19 07:24:33 51°19.915 2°50.433 16.8895 4.433023 34.486696 -3.020363
2011-07-19 07:24:37 51°19.928 2°50.424 16.8917 4.433023 34.486696 -3.020363
2011-07-19 07:24:41 51°19.941 2°50.415 16.8951 4.433334 34.486636 -3.020363
2011-07-19 07:24:47 51°19.962 2°50.402 16.8994 4.433646 34.487269 -3.020363
2011-07-19 07:24:52 51°19.978 2°50.391 16.9024 4.433853 34.486306 -3.020363
2011-07-19 07:24:57 51°19.995 2°50.38 16.9067 4.43406 34.486035 -3.020363
2011-07-19 07:25:01 51°20.008 2°50.371 16.9091 4.434371 34.485975 -3.020363
2011-07-19 07:25:07 51°20.028 2°50.357 16.9128 4.434371 34.485975 -3.020363
2011-07-19 07:25:13 51°20.048 2°50.343 16.9162 4.434579 34.485705 -3.020363
2011-07-19 07:25:17 51°20.061 2°50.334 16.9192 4.43489 34.485645 -3.020363
2011-07-19 07:25:23 51°20.081 2°50.321 16.9233 4.435201 34.485586 -3.020363
2011-07-19 07:25:27 51°20.094 2°50.312 16.9262 4.435616 34.485738 -3.020363
2011-07-19 07:25:33 51°20.114 2°50.299 16.9303 4.435927 34.485678 -3.020363
2011-07-19 07:25:37 51°20.127 2°50.29 16.9353 4.435927 34.485678 -3.020363
2011-07-19 07:25:43 51°20.147 2°50.276 16.9417 4.436238 34.484927 -3.020363
2011-07-19 07:25:47 51°20.16 2°50.266 16.9455 4.436653 34.485079 -3.020363
2011-07-19 07:25:53 51°20.18 2°50.251 16.9498 4.437172 34.486134 -3.020363
2011-07-19 07:25:57 51°20.193 2°50.241 16.9544 4.437379 34.485172 -3.020363
2011-07-19 07:26:01 51°20.206 2°50.231 16.9597 4.437794 34.484633 -3.020363
2011-07-19 07:26:07 51°20.225 2°50.215 16.9622 4.437794 34.484633 -3.020363
2011-07-19 07:26:13 51°20.244 2°50.199 16.9662 4.438209 34.484785 -3.020363
2011-07-19 07:26:17 51°20.257 2°50.188 16.9714 4.438831 34.484668 -3.020363
2011-07-19 07:26:21 51°20.27 2°50.177 16.9767 4.439453 34.485242 -3.020363
2011-07-19 07:26:27 51°20.289 2°50.161 16.9831 4.439972 34.485606 -3.020363
2011-07-19 07:26:33 51°20.308 2°50.145 16.9881 4.440594 34.486872 -3.020363
2011-07-19 07:26:37 51°20.321 2°50.134 16.9927 4.440594 34.486872 -3.020363
2011-07-19 07:26:41 51°20.334 2°50.124 16.9984 4.441113 34.487235 -3.020363
2011-07-19 07:26:47 51°20.353 2°50.108 17.0037 4.441631 34.487599 -3.020363
2011-07-19 07:26:53 51°20.373 2°50.093 17.0082 4.44215 34.488653 -3.020363
2011-07-19 07:26:57 51°20.385 2°50.082 17.0139 4.442772 34.487847 -3.020363
2011-07-19 07:27:01 51°20.398 2°50.072 17.0181 4.443394 34.487731 -3.020363
2011-07-19 07:27:07 51°20.418 2°50.057 17.0223 4.443394 34.487731 -3.020363
2011-07-19 07:27:12 51°20.434 2°50.044 17.0259 4.444017 34.488306 -3.020363
2011-07-19 07:27:17 51°20.45 2°50.032 17.0299 4.444535 34.48729 -3.020363
2011-07-19 07:27:21 51°20.463 2°50.022 17.0325 4.445157 34.487176 -3.020363
2011-07-19 07:27:27 51°20.483 2°50.008 17.0356 4.445676 34.48754 -3.020363
2011-07-19 07:27:33 51°20.502 2°49.994 17.0381 4.446298 34.487426 -3.020363
2011-07-19 07:27:37 51°20.516 2°49.985 17.0403 4.446298 34.487426 -3.020363
2011-07-19 07:27:43 51°20.535 2°49.971 17.0417 4.446817 34.487101 -3.020363
2011-07-19 07:27:47 51°20.549 2°49.962 17.0425 4.447439 34.488367 -3.020363
2011-07-19 07:27:53 51°20.568 2°49.948 17.0423 4.447854 34.488521 -3.020363
2011-07-19 07:27:57 51°20.581 2°49.939 17.0432 4.448269 34.487986 -3.020363
2011-07-19 07:28:03 51°20.601 2°49.924 17.0428 4.448787 34.488351 -3.020363
2011-07-19 07:28:07 51°20.614 2°49.915 17.0418 4.448787 34.488351 -3.020363
2011-07-19 07:28:13 51°20.634 2°49.901 17.0409 4.449202 34.489195 -3.020363
2011-07-19 07:28:17 51°20.647 2°49.891 17.0408 4.449513 34.489828 -3.020363
2011-07-19 07:28:21 51°20.66 2°49.881 17.0388 4.449825 34.490461 -3.020363
2011-07-19 07:28:27 51°20.679 2°49.866 17.0369 4.450032 34.490883 -3.020363
2011-07-19 07:28:33 51°20.698 2°49.851 17.0359 4.450239 34.491994 -3.020363
2011-07-19 07:28:37 51°20.711 2°49.84 17.0341 4.450239 34.491994 -3.020363
2011-07-19 07:28:41 51°20.724 2°49.83 17.0294 4.450343 34.492205 -3.020363
2011-07-19 07:28:47 51°20.743 2°49.813 17.0254 4.450447 34.493105 -3.020363
2011-07-19 07:28:53 51°20.762 2°49.797 17.0197 4.450447 34.493794 -3.020363
2011-07-19 07:28:57 51°20.775 2°49.787 17.0146 4.450551 34.494694 -3.020363
2011-07-19 07:29:01 51°20.788 2°49.777 17.0069 4.450447 34.495173 -3.020363
2011-07-19 07:29:07 51°20.807 2°49.762 16.9972 4.450447 34.495173 -3.020363
2011-07-19 07:29:12 51°20.823 2°49.749 16.9828 4.450447 34.496551 -3.020363
2011-07-19 07:29:17 51°20.839 2°49.737 16.9797 4.45024 34.496819 -3.020363
2011-07-19 07:29:21 51°20.852 2°49.728 16.9714 4.450136 34.498677 -3.020363
2011-07-19 07:29:27 51°20.872 2°49.714 16.9615 4.449825 34.499424 -3.020363
2011-07-19 07:29:33 51°20.891 2°49.7 16.9519 4.449514 34.500171 -3.020363
2011-07-19 07:29:37 51°20.904 2°49.691 16.9402 4.449514 34.500171 -3.020363
2011-07-19 07:29:41 51°20.917 2°49.682 16.9362 4.448995 34.502566 -3.020363
2011-07-19 07:29:47 51°20.937 2°49.669 16.9357 4.448269 34.503852 -3.020363
2011-07-19 07:29:53 51°20.957 2°49.656 16.9309 4.447439 34.504927 -3.020363
2011-07-19 07:29:57 51°20.97 2°49.647 16.9257 4.44661 34.505313 -3.020363
2011-07-19 07:30:03 51°20.99 2°49.634 16.9252 4.44578 34.506391 -3.020363
2011-07-19 07:30:07 51°21.003 2°49.625 16.925 4.44578 34.506391 -3.020363
2011-07-19 07:30:13 51°21.022 2°49.611 16.9239 4.444743 34.507049 -3.020363
2011-07-19 07:30:17 51°21.035 2°49.601 16.9193 4.443913 34.506746 -3.020363
2011-07-19 07:30:21 51°21.048 2°49.591 16.9204 4.443084 34.505752 -3.020363
2011-07-19 07:30:27 51°21.068 2°49.577 16.9203 4.442254 34.504759 -3.020363
2011-07-19 07:30:33 51°21.087 2°49.562 16.9206 4.441632 34.502804 -3.020363
2011-07-19 07:30:37 51°21.099 2°49.551 16.9185 4.441632 34.502804 -3.020363
2011-07-19 07:30:41 51°21.112 2°49.541 16.919 4.441113 34.50175 -3.020363
2011-07-19 07:30:47 51°21.131 2°49.525 16.9199 4.440698 34.500908 -3.020363
2011-07-19 07:30:53 51°21.151 2°49.509 16.9187 4.440076 34.498261 -3.020363
2011-07-19 07:30:57 51°21.163 2°49.499 16.9195 4.439661 34.496726 -3.020363
2011-07-19 07:31:01 51°21.176 2°49.488 16.9191 4.43935 34.494711 -3.020363
2011-07-19 07:31:07 51°21.195 2°49.473 16.9189 4.43935 34.494711 -3.020363
2011-07-19 07:31:13 51°21.215 2°49.458 16.92 4.439142 34.493598 -3.020363
2011-07-19 07:31:17 51°21.228 2°49.448 16.9175 4.438935 34.491793 -3.020363
2011-07-19 07:31:21 51°21.241 2°49.439 16.9177 4.438831 34.491582 -3.020363
2011-07-19 07:31:27 51°21.261 2°49.425 16.9184 4.438727 34.49068 -3.020363
2011-07-19 07:31:32 51°21.277 2°49.413 16.9219 4.438624 34.489777 -3.020363
2011-07-19 07:31:37 51°21.294 2°49.403 16.916 4.438624 34.489777 -3.020363
2011-07-19 07:31:41 51°21.307 2°49.393 16.9163 4.43852 34.489566 -3.020363
2011-07-19 07:31:47 51°21.328 2°49.38 16.9195 4.438416 34.488664 -3.020363
2011-07-19 07:31:53 51°21.348 2°49.366 16.9125 4.438313 34.487762 -3.020363
2011-07-19 07:31:57 51°21.361 2°49.357 16.9123 4.438313 34.487762 -3.020363
2011-07-19 07:32:03 51°21.381 2°49.344 16.9126 4.438313 34.487762 -3.020363
2011-07-19 07:32:07 51°21.394 2°49.335 16.9052 4.438313 34.487762 -3.020363
2011-07-19 07:32:13 51°21.413 2°49.32 16.9054 4.438209 34.486859 -3.020363
2011-07-19 07:32:17 51°21.426 2°49.31 16.9011 4.438105 34.48734 -3.020363
2011-07-19 07:32:23 51°21.446 2°49.294 16.8988 4.438001 34.487129 -3.020363
2011-07-19 07:32:27 51°21.459 2°49.284 16.8971 4.437898 34.486918 -3.020363
2011-07-19 07:32:33 51°21.478 2°49.268 16.8946 4.43769 34.486496 -3.020363
2011-07-19 07:32:37 51°21.49 2°49.257 16.8902 4.43769 34.486496 -3.020363
2011-07-19 07:32:41 51°21.503 2°49.245 16.8891 4.437587 34.487669 -3.020363
2011-07-19 07:32:47 51°21.522 2°49.228 16.8821 4.437379 34.487939 -3.020363
2011-07-19 07:32:53 51°21.541 2°49.211 16.8823 4.437172 34.4889 -3.020363
2011-07-19 07:32:57 51°21.554 2°49.2 16.8772 4.436861 34.48896 -3.020363
2011-07-19 07:33:01 51°21.567 2°49.19 16.8761 4.436757 34.490133 -3.020363
2011-07-19 07:33:07 51°21.586 2°49.174 16.8735 4.436757 34.490133 -3.020363
2011-07-19 07:33:13 51°21.605 2°49.158 16.87 4.436446 34.490192 -3.020363
2011-07-19 07:33:17 51°21.618 2°49.148 16.8697 4.436135 34.490252 -3.020363
2011-07-19 07:33:21 51°21.631 2°49.138 16.8665 4.435927 34.491906 -3.020363
2011-07-19 07:33:27 51°21.65 2°49.122 16.8648 4.435616 34.491966 -3.020363
2011-07-19 07:33:32 51°21.666 2°49.11 16.8633 4.435305 34.492026 -3.020363
2011-07-19 07:33:37 51°21.683 2°49.097 16.8637 4.435305 34.492026 -3.020363
2011-07-19 07:33:41 51°21.696 2°49.087 16.8619 4.435098 34.492989 -3.020363
2011-07-19 07:33:47 51°21.715 2°49.072 16.8589 4.434786 34.492357 -3.020363
2011-07-19 07:33:52 51°21.731 2°49.059 16.8576 4.434579 34.492628 -3.020363
2011-07-19 07:33:57 51°21.747 2°49.046 16.8543 4.434372 34.493592 -3.020363
2011-07-19 07:34:01 51°21.76 2°49.036 16.8514 4.434164 34.493863 -3.020363
2011-07-19 07:34:07 51°21.779 2°49.02 16.8508 4.434164 34.493863 -3.020363
2011-07-19 07:34:13 51°21.799 2°49.004 16.8517 4.433957 34.493441 -3.020363
2011-07-19 07:34:17 51°21.811 2°48.993 16.8502 4.433749 34.493712 -3.020363
2011-07-19 07:34:23 51°21.83 2°48.977 16.8502 4.433542 34.493984 -3.020363
2011-07-19 07:34:27 51°21.843 2°48.966 16.8495 4.433438 34.495158 -3.020363
2011-07-19 07:34:33 51°21.862 2°48.95 16.8489 4.433231 34.49543 -3.020363
2011-07-19 07:34:37 51°21.875 2°48.94 16.85 4.433231 34.49543 -3.020363
2011-07-19 07:34:43 51°21.895 2°48.924 16.8528 4.43292 34.494798 -3.020363
2011-07-19 07:34:47 51°21.907 2°48.914 16.8487 4.429704 34.468173 -3.020363
2011-07-19 07:34:53 51°21.927 2°48.898 16.8495 4.43292 34.496877 -3.020363
2011-07-19 07:34:57 51°21.939 2°48.887 16.8497 4.432816 34.496666 -3.020363
2011-07-19 07:35:01 51°21.952 2°48.876 16.8481 4.432712 34.496455 -3.020363
2011-07-19 07:35:07 51°21.971 2°48.859 16.8475 4.432712 34.496455 -3.020363
2011-07-19 07:35:13 51°21.99 2°48.842 16.8472 4.432712 34.497148 -3.020363
2011-07-19 07:35:17 51°22.002 2°48.831 16.8465 4.432609 34.495552 -3.020363
2011-07-19 07:35:21 51°22.015 2°48.819 16.8494 4.432609 34.496245 -3.020363
2011-07-19 07:35:27 51°22.034 2°48.803 16.8488 4.432609 34.496938 -3.020363
2011-07-19 07:35:33 51°22.053 2°48.785 16.8486 4.432609 34.496938 -3.020363
2011-07-19 07:35:37 51°22.065 2°48.774 16.8501 4.432609 34.496938 -3.020363
2011-07-19 07:35:41 51°22.078 2°48.763 16.8487 4.432505 34.496727 -3.020363
2011-07-19 07:35:47 51°22.096 2°48.746 16.8469 4.432505 34.496727 -3.020363
2011-07-19 07:35:53 51°22.115 2°48.729 16.8473 4.432401 34.496516 -3.020363
2011-07-19 07:35:57 51°22.128 2°48.717 16.8466 4.432297 34.495613 -3.020363
2011-07-19 07:36:01 51°22.141 2°48.706 16.8473 4.432297 34.495613 -3.020363
2011-07-19 07:36:07 51°22.16 2°48.69 16.8459 4.432297 34.495613 -3.020363
2011-07-19 07:36:13 51°22.179 2°48.674 16.8456 4.432297 34.49492 -3.020363
2011-07-19 07:36:17 51°22.192 2°48.664 16.8486 4.43209 34.493112 -3.020363
2011-07-19 07:36:21 51°22.205 2°48.654 16.8469 4.432194 34.494709 -3.020363
2011-07-19 07:36:27 51°22.225 2°48.64 16.8461 4.432194 34.494709 -3.020363
2011-07-19 07:36:33 51°22.245 2°48.626 16.8445 4.432194 34.494709 -3.020363
2011-07-19 07:36:37 51°22.258 2°48.616 16.8433 4.432194 34.494709 -3.020363
2011-07-19 07:36:43 51°22.278 2°48.602 16.8426 4.431364 34.488172 -3.020363
2011-07-19 07:36:47 51°22.291 2°48.592 16.8426 4.432194 34.495402 -3.020363
2011-07-19 07:36:53 51°22.31 2°48.578 16.8407 4.43209 34.493805 -3.020363
2011-07-19 07:36:57 51°22.323 2°48.568 16.8394 4.43209 34.493805 -3.020363
2011-07-19 07:37:03 51°22.343 2°48.553 16.8395 4.43209 34.494498 -3.020363
2011-07-19 07:37:07 51°22.356 2°48.543 16.8402 4.43209 34.494498 -3.020363
2011-07-19 07:37:13 51°22.375 2°48.527 16.8394 4.43209 34.495191 -3.020363
2011-07-19 07:37:17 51°22.387 2°48.516 16.8389 4.431986 34.495674 -3.020363
2011-07-19 07:37:21 51°22.4 2°48.506 16.8365 4.431883 34.495463 -3.020363
2011-07-19 07:37:27 51°22.419 2°48.489 16.8356 4.431779 34.495252 -3.020363
2011-07-19 07:37:33 51°22.438 2°48.472 16.838 4.431675 34.495735 -3.020363
2011-07-19 07:37:37 51°22.45 2°48.46 16.8372 4.431675 34.495735 -3.020363
2011-07-19 07:37:41 51°22.463 2°48.449 16.8359 4.431571 34.494831 -3.020363
2011-07-19 07:37:47 51°22.481 2°48.432 16.8342 4.431675 34.496428 -3.020363
2011-07-19 07:37:53 51°22.5 2°48.415 16.8333 4.431572 34.496217 -3.020363
2011-07-19 07:37:57 51°22.512 2°48.404 16.8309 4.431468 34.496007 -3.020363
2011-07-19 07:38:01 51°22.525 2°48.393 16.8283 4.431364 34.495796 -3.020363
2011-07-19 07:38:07 51°22.545 2°48.377 16.8258 4.431364 34.495796 -3.020363
2011-07-19 07:38:12 51°22.56 2°48.364 16.8244 4.431364 34.496489 -3.020363
2011-07-19 07:38:17 51°22.577 2°48.351 16.8228 4.43126 34.495585 -3.020363
2011-07-19 07:38:21 51°22.589 2°48.341 16.8217 4.431157 34.496068 -3.020363
2011-07-19 07:38:27 51°22.609 2°48.326 16.8226 4.431157 34.496761 -3.020363
2011-07-19 07:38:33 51°22.629 2°48.311 16.8206 4.431053 34.497244 -3.020363
2011-07-19 07:38:37 51°22.642 2°48.302 16.8179 4.431053 34.497244 -3.020363
2011-07-19 07:38:43 51°22.662 2°48.288 16.8145 4.430846 34.496823 -3.020363
2011-07-19 07:38:47 51°22.675 2°48.278 16.8139 4.430742 34.497999 -3.020363
2011-07-19 07:38:53 51°22.695 2°48.264 16.8147 4.430534 34.498271 -3.020363
2011-07-19 07:38:57 51°22.707 2°48.254 16.8127 4.430327 34.497157 -3.020363
2011-07-19 07:39:03 51°22.727 2°48.239 16.8095 4.430223 34.497639 -3.020363
2011-07-19 07:39:07 51°22.74 2°48.229 16.8087 4.430223 34.497639 -3.020363
2011-07-19 07:39:13 51°22.76 2°48.215 16.8096 4.43012 34.497429 -3.020363
2011-07-19 07:39:17 51°22.773 2°48.204 16.805 4.429912 34.498395 -3.020363
2011-07-19 07:39:21 51°22.785 2°48.194 16.8029 4.429705 34.497974 -3.020363
2011-07-19 07:39:27 51°22.805 2°48.178 16.8007 4.429601 34.498457 -3.020363
2011-07-19 07:39:33 51°22.823 2°48.161 16.8028 4.429186 34.496227 -3.020363
2011-07-19 07:39:37 51°22.836 2°48.15 16.8002 4.429186 34.496227 -3.020363
2011-07-19 07:39:41 51°22.849 2°48.139 16.8009 4.42929 34.499213 -3.020363
2011-07-19 07:39:47 51°22.868 2°48.122 16.7953 4.429186 34.499696 -3.020363
2011-07-19 07:39:53 51°22.886 2°48.105 16.7939 4.429083 34.500179 -3.020363
2011-07-19 07:39:57 51°22.899 2°48.093 16.7915 4.428875 34.500452 -3.020363
2011-07-19 07:40:01 51°22.912 2°48.082 16.7928 4.428668 34.500031 -3.020363
2011-07-19 07:40:07 51°22.93 2°48.065 16.791 4.428668 34.500031 -3.020363
2011-07-19 07:40:13 51°22.949 2°48.048 16.7882 4.428564 34.500514 -3.020363
2011-07-19 07:40:17 51°22.962 2°48.036 16.7869 4.42846 34.500998 -3.020363
2011-07-19 07:40:21 51°22.975 2°48.026 16.7873 4.428357 34.501481 -3.020363
2011-07-19 07:40:27 51°22.994 2°48.009 16.7833 4.428149 34.501754 -3.020363
2011-07-19 07:40:32 51°23.01 2°47.995 16.7805 4.427942 34.501333 -3.020363
2011-07-19 07:40:37 51°23.025 2°47.982 16.7834 4.427942 34.501333 -3.020363
2011-07-19 07:40:41 51°23.038 2°47.971 16.782 4.427942 34.502722 -3.020363
2011-07-19 07:40:47 51°23.058 2°47.956 16.778 4.427838 34.5039 -3.020363
2011-07-19 07:40:53 51°23.077 2°47.942 16.7764 4.427734 34.504384 -3.020363
2011-07-19 07:40:57 51°23.09 2°47.932 16.7758 4.427631 34.504868 -3.020363
2011-07-19 07:41:03 51°23.11 2°47.917 16.7732 4.427527 34.506046 -3.020363
2011-07-19 07:41:07 51°23.123 2°47.908 16.7739 4.427527 34.506046 -3.020363
2011-07-19 07:41:13 51°23.142 2°47.894 16.7713 4.42732 34.504931 -3.020363
2011-07-19 07:41:17 51°23.155 2°47.884 16.772 4.427112 34.503815 -3.020363
2011-07-19 07:41:23 51°23.175 2°47.869 16.7724 4.427216 34.506109 -3.020363
2011-07-19 07:41:27 51°23.188 2°47.859 16.7729 4.427112 34.506594 -3.020363
2011-07-19 07:41:33 51°23.207 2°47.844 16.7701 4.427009 34.507772 -3.020363
2011-07-19 07:41:37 51°23.22 2°47.833 16.771 4.427009 34.507772 -3.020363
2011-07-19 07:41:41 51°23.232 2°47.823 16.773 4.426905 34.508257 -3.020363
2011-07-19 07:41:47 51°23.251 2°47.806 16.773 4.426801 34.508741 -3.020363
2011-07-19 07:41:53 51°23.27 2°47.789 16.7758 4.426697 34.509225 -3.020363
2011-07-19 07:41:57 51°23.283 2°47.778 16.7763 4.426697 34.509225 -3.020363
2011-07-19 07:42:01 51°23.295 2°47.767 16.777 4.426594 34.509015 -3.020363
2011-07-19 07:42:07 51°23.315 2°47.75 16.78 4.426594 34.509015 -3.020363
2011-07-19 07:42:13 51°23.334 2°47.733 16.78 4.426594 34.509015 -3.020363
2011-07-19 07:42:17 51°23.346 2°47.722 16.7808 4.426594 34.509015 -3.020363
2011-07-19 07:42:21 51°23.359 2°47.711 16.7841 4.426594 34.509015 -3.020363
2011-07-19 07:42:27 51°23.378 2°47.693 16.7858 4.426697 34.508531 -3.020363
2011-07-19 07:42:33 51°23.397 2°47.676 16.784 4.426697 34.507836 -3.020363
2011-07-19 07:42:37 51°23.409 2°47.665 16.7854 4.426697 34.507836 -3.020363
2011-07-19 07:42:41 51°23.422 2°47.654 16.7865 4.426801 34.507352 -3.020363
2011-07-19 07:42:47 51°23.441 2°47.638 16.7892 4.426905 34.507562 -3.020363
2011-07-19 07:42:53 51°23.46 2°47.622 16.7883 4.427009 34.507078 -3.020363
2011-07-19 07:42:57 51°23.473 2°47.612 16.7828 4.427112 34.506594 -3.020363
2011-07-19 07:43:01 51°23.486 2°47.602 16.7838 4.42732 34.507014 -3.020363
2011-07-19 07:43:07 51°23.506 2°47.587 16.7815 4.42732 34.507014 -3.020363
2011-07-19 07:43:13 51°23.525 2°47.572 16.7827 4.42732 34.50632 -3.020363
2011-07-19 07:43:17 51°23.538 2°47.563 16.781 4.427527 34.507435 -3.020363
2011-07-19 07:43:23 51°23.558 2°47.549 16.7757 4.427631 34.506951 -3.020363
2011-07-19 07:43:27 51°23.571 2°47.539 16.7759 4.427734 34.507162 -3.020363
2011-07-19 07:43:33 51°23.591 2°47.525 16.7722 4.427734 34.508551 -3.020363
2011-07-19 07:43:37 51°23.604 2°47.516 16.7715 4.427734 34.508551 -3.020363
2011-07-19 07:43:43 51°23.624 2°47.501 16.7689 4.427735 34.509245 -3.020363
2011-07-19 07:43:47 51°23.637 2°47.492 16.7653 4.427631 34.50834 -3.020363
2011-07-19 07:43:53 51°23.656 2°47.477 16.7629 4.427631 34.50973 -3.020363
2011-07-19 07:43:57 51°23.669 2°47.466 16.7621 4.427527 34.510909 -3.020363
2011-07-19 07:44:01 51°23.682 2°47.456 16.7577 4.42732 34.510488 -3.020363
2011-07-19 07:44:07 51°23.702 2°47.441 16.7534 4.42732 34.510488 -3.020363
2011-07-19 07:44:13 51°23.721 2°47.426 16.7532 4.427112 34.510762 -3.020363
2011-07-19 07:44:17 51°23.734 2°47.416 16.7496 4.426905 34.511036 -3.020363
2011-07-19 07:44:21 51°23.747 2°47.406 16.7493 4.426697 34.512005 -3.020363
2011-07-19 07:44:27 51°23.766 2°47.39 16.7498 4.426386 34.511374 -3.020363
2011-07-19 07:44:33 51°23.785 2°47.374 16.7467 4.426283 34.511859 -3.020363
2011-07-19 07:44:37 51°23.798 2°47.363 16.744 4.426283 34.511859 -3.020363
2011-07-19 07:44:41 51°23.81 2°47.351 16.7424 4.425972 34.512618 -3.020363
2011-07-19 07:44:47 51°23.829 2°47.334 16.7417 4.42566 34.512682 -3.020363
2011-07-19 07:44:53 51°23.847 2°47.316 16.7427 4.425453 34.512956 -3.020363
2011-07-19 07:44:57 51°23.86 2°47.306 16.7383 4.425142 34.512325 -3.020363
2011-07-19 07:45:01 51°23.873 2°47.294 16.7359 4.424831 34.511694 -3.020363
2011-07-19 07:45:07 51°23.892 2°47.277 16.7359 4.424831 34.511694 -3.020363
2011-07-19 07:45:13 51°23.91 2°47.261 16.7339 4.424623 34.511969 -3.020363
2011-07-19 07:45:17 51°23.923 2°47.249 16.7329 4.424416 34.511548 -3.020363
2011-07-19 07:45:23 51°23.942 2°47.233 16.7343 4.424105 34.510222 -3.020363
2011-07-19 07:45:27 51°23.954 2°47.221 16.7319 4.423794 34.508896 -3.020363
2011-07-19 07:45:33 51°23.973 2°47.205 16.7297 4.423586 34.50917 -3.020363
2011-07-19 07:45:37 51°23.985 2°47.193 16.7327 4.423586 34.50917 -3.020363
2011-07-19 07:45:43 51°24.004 2°47.177 16.7307 4.423482 34.509655 -3.020363
2011-07-19 07:45:47 51°24.017 2°47.165 16.7305 4.423379 34.510141 -3.020363
2011-07-19 07:45:53 51°24.036 2°47.148 16.7336 4.423171 34.50972 -3.020363
2011-07-19 07:45:57 51°24.048 2°47.137 16.7336 4.422964 34.508604 -3.020363
2011-07-19 07:46:01 51°24.06 2°47.125 16.7341 4.42286 34.509089 -3.020363
2011-07-19 07:46:07 51°24.079 2°47.109 16.7341 4.42286 34.509089 -3.020363
2011-07-19 07:46:13 51°24.098 2°47.092 16.7348 4.422757 34.508878 -3.020363
2011-07-19 07:46:17 51°24.111 2°47.081 16.7362 4.422549 34.507066 -3.020363
2011-07-19 07:46:21 51°24.123 2°47.07 16.7383 4.422549 34.507066 -3.020363
2011-07-19 07:46:27 51°24.142 2°47.054 16.7405 4.422549 34.507066 -3.020363
2011-07-19 07:46:33 51°24.161 2°47.039 16.7416 4.422549 34.506371 -3.020363
2011-07-19 07:46:37 51°24.174 2°47.03 16.7436 4.422549 34.506371 -3.020363
2011-07-19 07:46:41 51°24.187 2°47.019 16.7452 4.422653 34.507277 -3.020363
2011-07-19 07:46:47 51°24.207 2°47.006 16.7492 4.42286 34.508393 -3.020363
2011-07-19 07:46:53 51°24.226 2°46.992 16.7499 4.422964 34.508604 -3.020363
2011-07-19 07:46:57 51°24.239 2°46.983 16.7501 4.423068 34.508814 -3.020363
2011-07-19 07:47:01 51°24.252 2°46.973 16.7545 4.423171 34.508329 -3.020363
2011-07-19 07:47:07 51°24.272 2°46.959 16.7574 4.423171 34.508329 -3.020363
2011-07-19 07:47:13 51°24.291 2°46.944 16.7576 4.423379 34.508054 -3.020363
2011-07-19 07:47:17 51°24.304 2°46.934 16.7578 4.423586 34.508475 -3.020363
2011-07-19 07:47:21 51°24.317 2°46.924 16.7597 4.42369 34.507294 -3.020363
2011-07-19 07:47:27 51°24.336 2°46.91 16.7603 4.424001 34.508621 -3.020363
2011-07-19 07:47:33 51°24.355 2°46.895 16.7615 4.424105 34.507441 -3.020363
2011-07-19 07:47:37 51°24.368 2°46.885 16.7622 4.424105 34.507441 -3.020363
2011-07-19 07:47:42 51°24.384 2°46.872 16.7604 4.424208 34.506261 -3.020363
2011-07-19 07:47:47 51°24.4 2°46.859 16.7617 4.424416 34.505986 -3.020363
2011-07-19 07:47:52 51°24.416 2°46.846 16.7609 4.424623 34.506407 -3.020363
2011-07-19 07:47:57 51°24.432 2°46.833 16.761 4.424727 34.505923 -3.020363
2011-07-19 07:48:02 51°24.447 2°46.818 16.7597 4.424831 34.506133 -3.020363
2011-07-19 07:48:07 51°24.463 2°46.805 16.7589 4.424831 34.506133 -3.020363
2011-07-19 07:48:12 51°24.478 2°46.79 16.7586 4.424831 34.504743 -3.020363
2011-07-19 07:48:17 51°24.494 2°46.776 16.7582 4.425038 34.506554 -3.020363
2011-07-19 07:48:22 51°24.509 2°46.761 16.7571 4.425038 34.505859 -3.020363
2011-07-19 07:48:27 51°24.525 2°46.747 16.7553 4.425038 34.505859 -3.020363
2011-07-19 07:48:32 51°24.54 2°46.733 16.7535 4.425038 34.505164 -3.020363
2011-07-19 07:48:37 51°24.556 2°46.719 16.7545 4.425038 34.505164 -3.020363
2011-07-19 07:48:42 51°24.571 2°46.706 16.7561 4.425038 34.505859 -3.020363
2011-07-19 07:48:47 51°24.587 2°46.693 16.7532 4.425142 34.506764 -3.020363
2011-07-19 07:48:53 51°24.606 2°46.677 16.7519 4.425142 34.508154 -3.020363
2011-07-19 07:48:57 51°24.619 2°46.667 16.7519 4.425038 34.507944 -3.020363
2011-07-19 07:49:01 51°24.632 2°46.657 16.7519 4.425038 34.508639 -3.020363
2011-07-19 07:49:07 51°24.651 2°46.642 16.7502 4.425038 34.508639 -3.020363
2011-07-19 07:49:13 51°24.67 2°46.627 16.7496 4.425038 34.509334 -3.020363
2011-07-19 07:49:17 51°24.683 2°46.617 16.7501 4.424831 34.508218 -3.020363
2011-07-19 07:49:21 51°24.696 2°46.607 16.7511 4.424831 34.508218 -3.020363
2011-07-19 07:49:27 51°24.715 2°46.593 16.753 4.424727 34.508008 -3.020363
2011-07-19 07:49:32 51°24.732 2°46.581 16.751 4.424727 34.508703 -3.020363
2011-07-19 07:49:37 51°24.748 2°46.568 16.7535 4.424727 34.508703 -3.020363
2011-07-19 07:49:41 51°24.76 2°46.558 16.7527 4.424727 34.509398 -3.020363
2011-07-19 07:49:47 51°24.78 2°46.543 16.7509 4.424727 34.510094 -3.020363
2011-07-19 07:49:52 51°24.796 2°46.531 16.7534 4.424623 34.509883 -3.020363
2011-07-19 07:49:57 51°24.812 2°46.518 16.7538 4.424623 34.509188 -3.020363
2011-07-19 07:50:01 51°24.825 2°46.508 16.7531 4.424623 34.509188 -3.020363
2011-07-19 07:50:07 51°24.844 2°46.492 16.752 4.424623 34.509188 -3.020363
2011-07-19 07:50:12 51°24.859 2°46.478 16.7524 4.424727 34.510094 -3.020363
2011-07-19 07:50:17 51°24.875 2°46.464 16.7531 4.424727 34.509398 -3.020363
2011-07-19 07:50:21 51°24.887 2°46.453 16.7537 4.424727 34.509398 -3.020363
2011-07-19 07:50:27 51°24.906 2°46.435 16.7545 4.424727 34.509398 -3.020363
2011-07-19 07:50:33 51°24.924 2°46.418 16.7565 4.424727 34.509398 -3.020363
2011-07-19 07:50:37 51°24.937 2°46.406 16.7565 4.424727 34.509398 -3.020363
2011-07-19 07:50:41 51°24.949 2°46.395 16.7574 4.424831 34.510304 -3.020363
2011-07-19 07:50:47 51°24.968 2°46.378 16.7577 4.424831 34.510304 -3.020363
2011-07-19 07:50:53 51°24.987 2°46.362 16.7609 4.424831 34.510304 -3.020363
2011-07-19 07:50:57 51°24.999 2°46.351 16.7626 4.424831 34.509609 -3.020363
2011-07-19 07:51:01 51°25.012 2°46.34 16.7659 4.424934 34.509819 -3.020363
2011-07-19 07:51:07 51°25.031 2°46.324 16.7732 4.424934 34.509819 -3.020363
2011-07-19 07:51:13 51°25.05 2°46.308 16.7789 4.424934 34.509124 -3.020363
2011-07-19 07:51:17 51°25.062 2°46.298 16.7815 4.41228 34.397288 -3.020363
2011-07-19 07:51:21 51°25.075 2°46.287 16.7851 4.425349 34.51066 -3.020363
2011-07-19 07:51:27 51°25.094 2°46.271 16.7891 4.425453 34.510176 -3.020363
2011-07-19 07:51:33 51°25.113 2°46.254 16.7939 4.425557 34.508996 -3.020363
2011-07-19 07:51:37 51°25.125 2°46.244 16.7989 4.425557 34.508996 -3.020363
2011-07-19 07:51:41 51°25.138 2°46.233 16.8026 4.42566 34.507816 -3.020363
2011-07-19 07:51:47 51°25.156 2°46.217 16.808 4.425868 34.504763 -3.020363
2011-07-19 07:51:52 51°25.172 2°46.203 16.8116 4.425971 34.502889 -3.020363
2011-07-19 07:51:57 51°25.188 2°46.189 16.815 4.426282 34.501437 -3.020363
2011-07-19 07:52:01 51°25.2 2°46.178 16.8181 4.426594 34.500679 -3.020363
2011-07-19 07:52:07 51°25.219 2°46.162 16.8211 4.426594 34.500679 -3.020363
2011-07-19 07:52:12 51°25.234 2°46.148 16.8244 4.426905 34.498533 -3.020363
2011-07-19 07:52:17 51°25.25 2°46.135 16.8275 4.427216 34.497082 -3.020363
2011-07-19 07:52:21 51°25.263 2°46.125 16.8308 4.427423 34.495421 -3.020363
2011-07-19 07:52:27 51°25.283 2°46.111 16.8331 4.427838 34.493488 -3.020363
2011-07-19 07:52:32 51°25.299 2°46.1 16.8372 4.428253 34.493637 -3.020363
2011-07-19 07:52:37 51°25.315 2°46.088 16.842 4.428253 34.493637 -3.020363
2011-07-19 07:52:41 51°25.328 2°46.08 16.8435 4.428668 34.493092 -3.020363
2011-07-19 07:52:47 51°25.348 2°46.068 16.8466 4.428979 34.492337 -3.020363
2011-07-19 07:52:53 51°25.368 2°46.056 16.8502 4.429186 34.490678 -3.020363
2011-07-19 07:52:57 51°25.382 2°46.048 16.851 4.429497 34.490617 -3.020363
2011-07-19 07:53:01 51°25.395 2°46.04 16.8539 4.429808 34.489169 -3.020363
2011-07-19 07:53:07 51°25.415 2°46.027 16.8575 4.429808 34.489169 -3.020363
2011-07-19 07:53:13 51°25.434 2°46.014 16.8601 4.430119 34.489108 -3.020363
2011-07-19 07:53:17 51°25.448 2°46.005 16.8619 4.430327 34.48745 -3.020363
2011-07-19 07:53:21 51°25.461 2°45.996 16.8643 4.430638 34.486696 -3.020363
2011-07-19 07:53:27 51°25.48 2°45.983 16.8657 4.430845 34.486425 -3.020363
2011-07-19 07:53:33 51°25.5 2°45.969 16.8675 4.431053 34.485461 -3.020363
2011-07-19 07:53:37 51°25.513 2°45.959 16.87 4.431053 34.485461 -3.020363
2011-07-19 07:53:41 51°25.526 2°45.95 16.8735 4.43126 34.484497 -3.020363
2011-07-19 07:53:47 51°25.545 2°45.936 16.8769 4.431364 34.48263 -3.020363
2011-07-19 07:53:53 51°25.565 2°45.922 16.8806 4.431571 34.481666 -3.020363
2011-07-19 07:53:57 51°25.578 2°45.913 16.8831 4.431882 34.482299 -3.020363
2011-07-19 07:54:01 51°25.591 2°45.904 16.8867 4.43209 34.482028 -3.020363
2011-07-19 07:54:07 51°25.611 2°45.89 16.8892 4.43209 34.482028 -3.020363
2011-07-19 07:54:12 51°25.627 2°45.878 16.8916 4.432297 34.481065 -3.020363
2011-07-19 07:54:17 51°25.643 2°45.866 16.8962 4.432608 34.481698 -3.020363
2011-07-19 07:54:21 51°25.656 2°45.857 16.8994 4.432712 34.479832 -3.020363
2011-07-19 07:54:27 51°25.675 2°45.843 16.903 4.433127 34.479291 -3.020363
2011-07-19 07:54:32 51°25.691 2°45.831 16.9063 4.433438 34.479232 -3.020363
2011-07-19 07:54:37 51°25.707 2°45.818 16.9092 4.433438 34.479232 -3.020363
2011-07-19 07:54:41 51°25.72 2°45.808 16.912 4.433749 34.479173 -3.020363
2011-07-19 07:54:47 51°25.74 2°45.793 16.9149 4.433853 34.478 -3.020363
2011-07-19 07:54:53 51°25.759 2°45.778 16.9186 4.434164 34.476557 -3.020363
2011-07-19 07:54:57 51°25.772 2°45.768 16.9209 4.434371 34.475596 -3.020363
2011-07-19 07:55:01 51°25.785 2°45.759 16.9247 4.434682 34.474845 -3.020363
2011-07-19 07:55:07 51°25.804 2°45.745 16.9272 4.434682 34.474845 -3.020363
2011-07-19 07:55:13 51°25.824 2°45.731 16.9305 4.435097 34.474998 -3.020363
2011-07-19 07:55:17 51°25.837 2°45.722 16.9325 4.435408 34.474248 -3.020363
2011-07-19 07:55:21 51°25.851 2°45.713 16.934 4.435616 34.473287 -3.020363
2011-07-19 07:55:27 51°25.871 2°45.701 16.9367 4.435823 34.471636 -3.020363
2011-07-19 07:55:33 51°25.89 2°45.689 16.937 4.436134 34.470887 -3.020363
2011-07-19 07:55:37 51°25.904 2°45.681 16.9377 4.436134 34.470887 -3.020363
2011-07-19 07:55:41 51°25.917 2°45.673 16.9389 4.436445 34.470138 -3.020363
2011-07-19 07:55:47 51°25.937 2°45.66 16.9391 4.436757 34.47008 -3.020363
2011-07-19 07:55:53 51°25.958 2°45.648 16.9396 4.436964 34.469121 -3.020363
2011-07-19 07:55:57 51°25.971 2°45.64 16.9402 4.437171 34.468852 -3.020363
2011-07-19 07:56:01 51°25.984 2°45.631 16.94 4.437379 34.468584 -3.020363
2011-07-19 07:56:07 51°26.004 2°45.618 16.9388 4.437379 34.468584 -3.020363
2011-07-19 07:56:12 51°26.02 2°45.608 16.9369 4.437586 34.469006 -3.020363
2011-07-19 07:56:17 51°26.037 2°45.597 16.9344 4.43769 34.467836 -3.020363
2011-07-19 07:56:21 51°26.05 2°45.588 16.9302 4.437897 34.468949 -3.020363
2011-07-19 07:56:27 51°26.07 2°45.576 16.9256 4.438001 34.46916 -3.020363
2011-07-19 07:56:32 51°26.086 2°45.565 16.9205 4.438105 34.469371 -3.020363
2011-07-19 07:56:37 51°26.103 2°45.554 16.9139 4.438105 34.469371 -3.020363
2011-07-19 07:56:41 51°26.116 2°45.545 16.9098 4.438208 34.469582 -3.020363
2011-07-19 07:56:47 51°26.136 2°45.531 16.9041 4.438209 34.470273 -3.020363
2011-07-19 07:56:52 51°26.152 2°45.52 16.8989 4.438209 34.471655 -3.020363
2011-07-19 07:56:57 51°26.168 2°45.508 16.8944 4.438209 34.473727 -3.020363
2011-07-19 07:57:01 51°26.181 2°45.498 16.8931 4.438105 34.475589 -3.020363
2011-07-19 07:57:07 51°26.2 2°45.484 16.8913 4.438105 34.475589 -3.020363
2011-07-19 07:57:13 51°26.22 2°45.47 16.889 4.437794 34.477029 -3.020363
2011-07-19 07:57:17 51°26.233 2°45.461 16.8821 4.437483 34.47916 -3.020363
2011-07-19 07:57:21 51°26.246 2°45.452 16.8774 4.437172 34.481984 -3.020363
2011-07-19 07:57:27 51°26.265 2°45.439 16.8724 4.436757 34.482524 -3.020363
2011-07-19 07:57:33 51°26.285 2°45.425 16.8695 4.436342 34.482371 -3.020363
2011-07-19 07:57:37 51°26.298 2°45.416 16.8648 4.436342 34.482371 -3.020363
2011-07-19 07:57:41 51°26.311 2°45.407 16.8586 4.436031 34.483814 -3.020363
2011-07-19 07:57:47 51°26.331 2°45.393 16.8536 4.43572 34.483873 -3.020363
2011-07-19 07:57:53 51°26.35 2°45.38 16.854 4.435512 34.485527 -3.020363
2011-07-19 07:57:57 51°26.363 2°45.371 16.8474 4.435097 34.486759 -3.020363
2011-07-19 07:58:01 51°26.376 2°45.362 16.8481 4.434786 34.488203 -3.020363
2011-07-19 07:58:07 51°26.395 2°45.347 16.8442 4.434786 34.488203 -3.020363
2011-07-19 07:58:13 51°26.415 2°45.332 16.8452 4.434372 34.488052 -3.020363
2011-07-19 07:58:17 51°26.427 2°45.323 16.8415 4.43406 34.489497 -3.020363
2011-07-19 07:58:21 51°26.44 2°45.313 16.8386 4.433749 34.492327 -3.020363
2011-07-19 07:58:27 51°26.46 2°45.298 16.834 4.433335 34.492177 -3.020363
2011-07-19 07:58:33 51°26.479 2°45.283 16.8315 4.433023 34.49293 -3.020363
2011-07-19 07:58:37 51°26.491 2°45.273 16.828 4.433023 34.49293 -3.020363
2011-07-19 07:58:41 51°26.504 2°45.264 16.8269 4.432712 34.492991 -3.020363
2011-07-19 07:58:47 51°26.524 2°45.249 16.8267 4.432401 34.493051 -3.020363
2011-07-19 07:58:52 51°26.54 2°45.237 16.8232 4.43209 34.493112 -3.020363
2011-07-19 07:58:57 51°26.556 2°45.225 16.8197 4.431986 34.494287 -3.020363
2011-07-19 07:59:01 51°26.569 2°45.216 16.8199 4.431779 34.495945 -3.020363
2011-07-19 07:59:07 51°26.588 2°45.201 16.8151 4.431779 34.495945 -3.020363
2011-07-19 07:59:12 51°26.604 2°45.189 16.8127 4.431572 34.496911 -3.020363
2011-07-19 07:59:17 51°26.62 2°45.177 16.8114 4.431364 34.497876 -3.020363
2011-07-19 07:59:21 51°26.633 2°45.167 16.8122 4.431157 34.498148 -3.020363
2011-07-19 07:59:27 51°26.652 2°45.152 16.8118 4.430949 34.49842 -3.020363
2011-07-19 07:59:33 51°26.672 2°45.138 16.8097 4.430846 34.50029 -3.020363
2011-07-19 07:59:37 51°26.684 2°45.128 16.8079 4.430846 34.50029 -3.020363
2011-07-19 07:59:41 51°26.697 2°45.118 16.8082 4.430638 34.499869 -3.020363
2011-07-19 07:59:47 51°26.717 2°45.104 16.8047 4.430535 34.502433 -3.020363
2011-07-19 07:59:53 51°26.736 2°45.091 16.8075 4.430327 34.502706 -3.020363
2011-07-19 07:59:57 51°26.75 2°45.082 16.803 4.430223 34.503189 -3.020363
2011-07-19 08:00:01 51°26.763 2°45.074 16.7984 4.430223 34.503883 -3.020363
2011-07-19 08:00:07 51°26.783 2°45.062 16.8003 4.430223 34.503883 -3.020363
2011-07-19 08:00:13 51°26.803 2°45.05 16.7957 4.430223 34.504577 -3.020363
2011-07-19 08:00:17 51°26.816 2°45.041 16.796 4.43012 34.50506 -3.020363
2011-07-19 08:00:21 51°26.829 2°45.033 16.7941 4.43012 34.506448 -3.020363
2011-07-19 08:00:27 51°26.849 2°45.021 16.7942 4.430016 34.506932 -3.020363
2011-07-19 08:00:33 51°26.868 2°45.007 16.7949 4.430016 34.50832 -3.020363
2011-07-19 08:00:37 51°26.881 2°44.999 16.7926 4.430016 34.50832 -3.020363
2011-07-19 08:00:41 51°26.894 2°44.99 16.7924 4.429912 34.509498 -3.020363
2011-07-19 08:00:47 51°26.914 2°44.977 16.7911 4.429809 34.510676 -3.020363
2011-07-19 08:00:52 51°26.93 2°44.966 16.7919 4.429705 34.511159 -3.020363
2011-07-19 08:00:57 51°26.946 2°44.954 16.789 4.429498 34.510739 -3.020363
2011-07-19 08:01:01 51°26.959 2°44.945 16.7884 4.429394 34.511223 -3.020363
2011-07-19 08:01:07 51°26.979 2°44.931 16.7879 4.429394 34.511223 -3.020363
2011-07-19 08:01:12 51°26.995 2°44.919 16.789 4.42929 34.511012 -3.020363
2011-07-19 08:01:17 51°27.011 2°44.907 16.7873 4.42929 34.511707 -3.020363
2011-07-19 08:01:21 51°27.024 2°44.898 16.7874 4.42929 34.513095 -3.020363
2011-07-19 08:01:27 51°27.043 2°44.884 16.7867 4.42929 34.51379 -3.020363
2011-07-19 08:01:33 51°27.063 2°44.87 16.7885 4.42929 34.51379 -3.020363
2011-07-19 08:01:37 51°27.076 2°44.86 16.7872 4.42929 34.51379 -3.020363
2011-07-19 08:01:43 51°27.095 2°44.847 16.7859 4.42929 34.515179 -3.020363
2011-07-19 08:01:47 51°27.108 2°44.837 16.7851 4.42929 34.515874 -3.020363
2011-07-19 08:01:53 51°27.128 2°44.823 16.7857 4.42929 34.515874 -3.020363
2011-07-19 08:01:57 51°27.141 2°44.813 16.7871 4.42929 34.516568 -3.020363
2011-07-19 08:02:01 51°27.153 2°44.803 16.7873 4.42929 34.516568 -3.020363
2011-07-19 08:02:07 51°27.173 2°44.789 16.7861 4.42929 34.516568 -3.020363
2011-07-19 08:02:13 51°27.192 2°44.775 16.7868 4.429187 34.515663 -3.020363
2011-07-19 08:02:17 51°27.206 2°44.766 16.7857 4.42929 34.517263 -3.020363
2011-07-19 08:02:21 51°27.219 2°44.756 16.7851 4.42929 34.517957 -3.020363
2011-07-19 08:02:27 51°27.238 2°44.742 16.7844 4.429394 34.518862 -3.020363
2011-07-19 08:02:33 51°27.258 2°44.728 16.7824 4.429394 34.518862 -3.020363
2011-07-19 08:02:37 51°27.27 2°44.718 16.7834 4.429394 34.518862 -3.020363
2011-07-19 08:02:41 51°27.283 2°44.709 16.7832 4.429394 34.518862 -3.020363
2011-07-19 08:02:47 51°27.303 2°44.694 16.7828 4.429394 34.518862 -3.020363
2011-07-19 08:02:53 51°27.322 2°44.68 16.7814 4.429394 34.519557 -3.020363
2011-07-19 08:02:57 51°27.335 2°44.669 16.7807 4.429394 34.520252 -3.020363
2011-07-19 08:03:01 51°27.348 2°44.659 16.7817 4.429394 34.520947 -3.020363
2011-07-19 08:03:07 51°27.367 2°44.644 16.7822 4.429394 34.520947 -3.020363
2011-07-19 08:03:12 51°27.383 2°44.631 16.7788 4.429394 34.520947 -3.020363
2011-07-19 08:03:17 51°27.399 2°44.619 16.7776 4.429394 34.521641 -3.020363
2011-07-19 08:03:21 51°27.412 2°44.608 16.7802 4.429394 34.521641 -3.020363
2011-07-19 08:03:27 51°27.431 2°44.593 16.7803 4.42929 34.521431 -3.020363
2011-07-19 08:03:32 51°27.447 2°44.581 16.7782 4.429187 34.521221 -3.020363
2011-07-19 08:03:37 51°27.463 2°44.568 16.7797 4.429187 34.521221 -3.020363
2011-07-19 08:03:41 51°27.476 2°44.559 16.7818 4.429187 34.521916 -3.020363
2011-07-19 08:03:47 51°27.496 2°44.545 16.7802 4.429187 34.522611 -3.020363
2011-07-19 08:03:53 51°27.516 2°44.533 16.7818 4.429083 34.522401 -3.020363
2011-07-19 08:03:57 51°27.529 2°44.524 16.7812 4.429083 34.522401 -3.020363
2011-07-19 08:04:03 51°27.549 2°44.512 16.782 4.429083 34.521706 -3.020363
2011-07-19 08:04:07 51°27.562 2°44.504 16.7818 4.429083 34.521706 -3.020363
2011-07-19 08:04:13 51°27.582 2°44.49 16.7853 4.429083 34.521706 -3.020363
2011-07-19 08:04:17 51°27.595 2°44.482 16.7867 4.429083 34.521706 -3.020363
2011-07-19 08:04:21 51°27.608 2°44.473 16.7871 4.429083 34.521011 -3.020363
2011-07-19 08:04:27 51°27.627 2°44.46 16.7892 4.429083 34.521011 -3.020363
2011-07-19 08:04:33 51°27.647 2°44.447 16.7891 4.429187 34.521221 -3.020363
2011-07-19 08:04:37 51°27.66 2°44.438 16.7917 4.429187 34.521221 -3.020363
2011-07-19 08:04:41 51°27.673 2°44.43 16.7935 4.429187 34.521221 -3.020363
2011-07-19 08:04:47 51°27.693 2°44.416 16.7953 4.42929 34.521431 -3.020363
2011-07-19 08:04:53 51°27.713 2°44.403 16.7982 4.429394 34.521641 -3.020363
2011-07-19 08:04:57 51°27.726 2°44.396 16.8007 4.427942 34.506888 -3.020363
2011-07-19 08:05:01 51°27.739 2°44.387 16.801 4.429601 34.520672 -3.020363
2011-07-19 08:05:07 51°27.759 2°44.374 16.8035 4.429601 34.520672 -3.020363
2011-07-19 08:05:13 51°27.779 2°44.361 16.8061 4.429705 34.520188 -3.020363
2011-07-19 08:05:17 51°27.792 2°44.353 16.8072 4.429913 34.520608 -3.020363
2011-07-19 08:05:21 51°27.805 2°44.344 16.8101 4.43012 34.521029 -3.020363
2011-07-19 08:05:27 51°27.825 2°44.33 16.811 4.430224 34.519155 -3.020363
2011-07-19 08:05:32 51°27.841 2°44.318 16.8154 4.430431 34.519576 -3.020363
2011-07-19 08:05:37 51°27.857 2°44.307 16.8164 4.430431 34.519576 -3.020363
2011-07-19 08:05:41 51°27.87 2°44.297 16.8173 4.430535 34.519091 -3.020363
2011-07-19 08:05:47 51°27.889 2°44.281 16.8202 4.430742 34.518818 -3.020363
2011-07-19 08:05:52 51°27.905 2°44.269 16.8213 4.43095 34.518544 -3.020363
2011-07-19 08:05:57 51°27.921 2°44.256 16.8239 4.431261 34.519175 -3.020363
2011-07-19 08:06:01 51°27.933 2°44.245 16.8247 4.431468 34.519595 -3.020363
2011-07-19 08:06:07 51°27.952 2°44.23 16.8288 4.431468 34.519595 -3.020363
2011-07-19 08:06:13 51°27.971 2°44.215 16.8309 4.431676 34.518627 -3.020363
2011-07-19 08:06:17 51°27.984 2°44.205 16.8321 4.431779 34.518143 -3.020363
2011-07-19 08:06:21 51°27.997 2°44.195 16.8326 4.431987 34.51787 -3.020363
2011-07-19 08:06:27 51°28.016 2°44.18 16.834 4.432194 34.51829 -3.020363
2011-07-19 08:06:33 51°28.035 2°44.165 16.8369 4.432402 34.518017 -3.020363
2011-07-19 08:06:37 51°28.048 2°44.155 16.8369 4.432402 34.518017 -3.020363